Darstellungsparameter: Aktuell verwendete Einstellungen:
Skalierung der Graphiken ... ?
xyx+y,   Skalierungsfaktor:      Skalierung: Modus: x, Faktor: 1
Darstellungszeitraum ... ?
Vom - - bis: - -   Zeitraum: 10.01.2011 - 23.01.2011
Min/Max/Avg-Anzeige ... ?
Zeige MMA aktuell
Zeige MMA Monat
Zeige MMA alles
Zeige --A aktuell
Zeige --A Monat
Zeige --A alles
Keine MMA-Anzeige
MMA:
Average (ber die Originaldaten)
MMA-Basis: 10.01.2011 - 23.01.2011
Quicknavigation für Darstellung... ?
Tage:      1T, 2T, 3T, 5T -1T -2T -3T -5T +1T +2T +3T +5T
Wochen: 1W, 2W, 3W -1W -2W -3W +1W +2W +3W
Monate: 1M, 3M, 6M -1M -3M -6M +1M +3M +6M
Jahre:    1J, 3J, 5J, 10J -1J -3J -5J -10J +1J +3J +5J +10J
Nutze für die Darstellung ... ?
Originaldaten oder Mittelwerte auf ...
Stundenbasis Tagesbasis Wochenbasis
Monatsbasis Jahresbasis      Datenbasis: Original-Daten
Darstellen als:
Statistik (Auto) Statistik J:M      Darstellung:
Zur Graphik,    zurück zur Übersicht aller Sensoren.
 
Tabellarische Datenbersicht: ?
 
Sensor: Nr:Datum:Temp:Abs-Feuchte:Windchill:Wind:
Aussen-T/F 1 10-01-2011 00:00:02 0.3 C 4.6 g/m*3 0.3 C 0 km/h
2 10-01-2011 00:12:02 0.6 C 4.7 g/m*3 0.6 C 0 km/h
3 10-01-2011 00:24:02 0.3 C 4.6 g/m*3 0.3 C 0 km/h
4 10-01-2011 00:36:02 -0.2 C 4.44 g/m*3 -0.2 C 0 km/h
5 10-01-2011 00:48:02 -0.2 C 4.44 g/m*3 -0.2 C 0 km/h
6 10-01-2011 01:00:02 0.2 C 4.57 g/m*3 0.2 C 0 km/h
7 10-01-2011 01:12:02 0.3 C 4.6 g/m*3 0.3 C 0 km/h
8 10-01-2011 01:24:02 0.4 C 4.63 g/m*3 0.4 C 0 km/h
9 10-01-2011 01:36:02 0.3 C 4.65 g/m*3 0.3 C 0 km/h
10 10-01-2011 01:48:02 0.2 C 4.62 g/m*3 0.2 C 0 km/h
11 10-01-2011 02:00:02 0.2 C 4.62 g/m*3 0.2 C 0 km/h
12 10-01-2011 02:12:02 0.1 C 4.54 g/m*3 0.1 C 0 km/h
13 10-01-2011 02:24:02 0 C 4.55 g/m*3 0 C 0 km/h
14 10-01-2011 02:36:03 -0.1 C 4.52 g/m*3 -0.1 C 0 km/h
15 10-01-2011 02:48:03 -0.1 C 4.52 g/m*3 -0.1 C 0 km/h
16 10-01-2011 03:00:03 0 C 4.55 g/m*3 0 C 0 km/h
17 10-01-2011 03:12:03 0.2 C 4.62 g/m*3 0.2 C 0 km/h
18 10-01-2011 03:24:03 0.3 C 4.65 g/m*3 0.3 C 0 km/h
19 10-01-2011 03:36:03 0.2 C 4.62 g/m*3 0.2 C 0 km/h
20 10-01-2011 03:48:03 0.3 C 4.65 g/m*3 0.3 C 0 km/h
21 10-01-2011 04:00:03 0.4 C 4.68 g/m*3 0.4 C 0 km/h
22 10-01-2011 04:12:03 0.4 C 4.68 g/m*3 0.4 C 0 km/h
23 10-01-2011 04:24:03 0.4 C 4.68 g/m*3 0.4 C 0 km/h
24 10-01-2011 04:36:03 0.4 C 4.68 g/m*3 0.4 C 0 km/h
25 10-01-2011 04:48:03 0.3 C 4.65 g/m*3 0.3 C 0 km/h
Sensor: Nr:Datum:Temp:Abs-Feuchte:Windchill:Wind:
Aussen-T/F 26 10-01-2011 05:00:03 0.3 C 4.65 g/m*3 0.3 C 0 km/h
27 10-01-2011 05:12:03 0.3 C 4.65 g/m*3 0.3 C 0 km/h
28 10-01-2011 05:24:03 0.2 C 4.62 g/m*3 0.2 C 0 km/h
29 10-01-2011 05:36:03 0.3 C 4.65 g/m*3 0.3 C 0 km/h
30 10-01-2011 05:48:03 0.2 C 4.57 g/m*3 0.2 C 0 km/h
31 10-01-2011 06:00:03 0.2 C 4.57 g/m*3 0.2 C 0 km/h
32 10-01-2011 06:12:03 0.2 C 4.57 g/m*3 0.2 C 0 km/h
33 10-01-2011 06:24:03 0.2 C 4.57 g/m*3 0.2 C 0 km/h
34 10-01-2011 06:36:04 0.2 C 4.57 g/m*3 0.2 C 0 km/h
35 10-01-2011 06:48:04 0.2 C 4.57 g/m*3 0.2 C 0 km/h
36 10-01-2011 07:00:04 0.2 C 4.57 g/m*3 0.2 C 0 km/h
37 10-01-2011 07:12:01 -0.1 C 4.47 g/m*3 -0.1 C 0 km/h
38 10-01-2011 07:24:02 0 C 4.51 g/m*3 0 C 0 km/h
39 10-01-2011 07:36:01 0.1 C 4.54 g/m*3 0.1 C 0 km/h
40 10-01-2011 07:48:02 0.3 C 4.6 g/m*3 0.3 C 0 km/h
41 10-01-2011 08:00:02 0.3 C 4.6 g/m*3 0.3 C 0 km/h
42 10-01-2011 08:12:01 0.2 C 4.52 g/m*3 0.2 C 0 km/h
43 10-01-2011 08:24:02 0.2 C 4.52 g/m*3 0.2 C 0 km/h
44 10-01-2011 08:36:01 0.1 C 4.44 g/m*3 0.1 C 0 km/h
45 10-01-2011 08:48:03 0.1 C 4.44 g/m*3 0.1 C 0 km/h
46 10-01-2011 09:00:03 0.2 C 4.47 g/m*3 0.2 C 0 km/h
47 10-01-2011 09:12:02 0.3 C 4.45 g/m*3 0.3 C 0 km/h
48 10-01-2011 09:24:02 0.4 C 4.48 g/m*3 0.4 C 0 km/h
49 10-01-2011 09:36:02 0.3 C 4.4 g/m*3 0.3 C 0 km/h
50 10-01-2011 09:48:02 0.4 C 4.43 g/m*3 0.4 C 0 km/h
Sensor: Nr:Datum:Temp:Abs-Feuchte:Windchill:Wind:
Aussen-T/F 51 10-01-2011 10:00:02 0.5 C 4.41 g/m*3 0.5 C 0 km/h
52 10-01-2011 10:12:02 0.2 C 4.27 g/m*3 0.2 C 0 km/h
53 10-01-2011 10:24:02 0.5 C 4.36 g/m*3 0.5 C 0 km/h
54 10-01-2011 10:36:02 0.7 C 4.37 g/m*3 0.7 C 0 km/h
55 10-01-2011 10:48:02 0.8 C 4.4 g/m*3 0.8 C 0 km/h
56 10-01-2011 11:00:02 1.1 C 4.39 g/m*3 1.1 C 0 km/h
57 10-01-2011 11:12:01 0.5 C 4.16 g/m*3 0.5 C 0 km/h
58 10-01-2011 11:24:01 0.8 C 4.2 g/m*3 0.8 C 0 km/h
59 10-01-2011 11:36:02 0.8 C 4.15 g/m*3 0.8 C 0 km/h
60 10-01-2011 11:48:02 1.2 C 4.21 g/m*3 1.2 C 0 km/h
61 10-01-2011 12:00:02 1.3 C 4.24 g/m*3 1.3 C 0 km/h
62 10-01-2011 12:12:02 1.7 C 4.3 g/m*3 1.7 C 0 km/h
63 10-01-2011 12:24:01 2.1 C 4.36 g/m*3 2.1 C 0 km/h
64 10-01-2011 12:36:02 2 C 4.33 g/m*3 2 C 0 km/h
65 10-01-2011 12:48:02 1.8 C 4.28 g/m*3 1.8 C 0 km/h
66 10-01-2011 13:00:02 2.1 C 4.36 g/m*3 2.1 C 0 km/h
67 10-01-2011 13:12:02 2 C 4.33 g/m*3 2 C 0 km/h
68 10-01-2011 13:24:01 2 C 4.39 g/m*3 2 C 0 km/h
69 10-01-2011 13:36:02 2.2 C 4.45 g/m*3 2.2 C 0 km/h
70 10-01-2011 13:48:02 2.2 C 4.39 g/m*3 2.2 C 0 km/h
71 10-01-2011 14:00:02 2.4 C 4.45 g/m*3 2.4 C 0 km/h
72 10-01-2011 14:12:02 2.5 C 4.48 g/m*3 2.5 C 0 km/h
73 10-01-2011 14:24:02 2.3 C 4.48 g/m*3 2.3 C 0 km/h
74 10-01-2011 14:36:02 2.1 C 4.36 g/m*3 2.1 C 0 km/h
75 10-01-2011 14:48:02 2 C 4.33 g/m*3 2 C 0 km/h
Sensor: Nr:Datum:Temp:Abs-Feuchte:Windchill:Wind:
Aussen-T/F 76 10-01-2011 15:00:02 2 C 4.33 g/m*3 2 C 0 km/h
77 10-01-2011 15:12:02 2.1 C 4.36 g/m*3 2.1 C 0 km/h
78 10-01-2011 15:24:02 2.1 C 4.36 g/m*3 2.1 C 0 km/h
79 10-01-2011 15:36:01 2.2 C 4.39 g/m*3 2.2 C 0 km/h
80 10-01-2011 15:48:02 2.1 C 4.36 g/m*3 2.1 C 0 km/h
81 10-01-2011 16:00:02 2.1 C 4.36 g/m*3 2.1 C 0 km/h
82 10-01-2011 16:12:01 2 C 4.33 g/m*3 2 C 0 km/h
83 10-01-2011 16:24:02 1.9 C 4.36 g/m*3 1.9 C 0 km/h
84 10-01-2011 16:36:02 1.8 C 4.33 g/m*3 1.8 C 0 km/h
85 10-01-2011 16:48:02 1.5 C 4.24 g/m*3 1.5 C 0 km/h
86 10-01-2011 17:00:02 1.2 C 4.21 g/m*3 1.2 C 0 km/h
87 10-01-2011 17:12:02 0.8 C 4.2 g/m*3 0.8 C 0 km/h
88 10-01-2011 17:24:02 0.7 C 4.22 g/m*3 0.7 C 0 km/h
89 10-01-2011 17:36:02 0.7 C 4.27 g/m*3 0.7 C 0 km/h
90 10-01-2011 17:48:02 0.8 C 4.3 g/m*3 0.8 C 0 km/h
91 10-01-2011 18:00:02 0.7 C 4.27 g/m*3 0.7 C 0 km/h
92 10-01-2011 18:12:01 0.4 C 4.18 g/m*3 0.4 C 0 km/h
93 10-01-2011 18:24:02 0.1 C 4.1 g/m*3 0.1 C 0 km/h
94 10-01-2011 18:36:02 -0.1 C 4.09 g/m*3 -0.1 C 0 km/h
95 10-01-2011 18:48:02 0 C 4.17 g/m*3 0 C 0 km/h
96 10-01-2011 19:00:02 0.1 C 4.24 g/m*3 0.1 C 0 km/h
97 10-01-2011 19:12:02 0.2 C 4.27 g/m*3 0.2 C 0 km/h
98 10-01-2011 19:24:02 0.2 C 4.32 g/m*3 0.2 C 0 km/h
99 10-01-2011 19:36:02 0.4 C 4.38 g/m*3 0.4 C 0 km/h
100 10-01-2011 19:48:02 0.4 C 4.38 g/m*3 0.4 C 0 km/h
Sensor: Nr:Datum:Temp:Abs-Feuchte:Windchill:Wind:
Aussen-T/F 101 10-01-2011 20:00:02 0.4 C 4.38 g/m*3 0.4 C 0 km/h
102 10-01-2011 20:12:02 0.6 C 4.39 g/m*3 0.6 C 0 km/h
103 10-01-2011 20:24:01 0.8 C 4.4 g/m*3 0.8 C 0 km/h
104 10-01-2011 20:36:02 0.8 C 4.3 g/m*3 0.8 C 0 km/h
105 10-01-2011 20:48:02 0.8 C 4.25 g/m*3 0.8 C 0 km/h
106 10-01-2011 21:00:02 0.7 C 4.12 g/m*3 0.7 C 0 km/h
107 10-01-2011 21:12:02 0.6 C 4.04 g/m*3 0.6 C 0 km/h
108 10-01-2011 21:24:01 0.5 C 4.01 g/m*3 0.5 C 0 km/h
109 10-01-2011 21:36:02 0.5 C 4.01 g/m*3 0.5 C 0 km/h
110 10-01-2011 21:48:02 0.5 C 4.01 g/m*3 0.5 C 0 km/h
111 10-01-2011 22:00:02 0.5 C 4.06 g/m*3 0.5 C 0 km/h
112 10-01-2011 22:12:02 0.5 C 4.06 g/m*3 0.5 C 0 km/h
113 10-01-2011 22:25:04 0.5 C 4.06 g/m*3 0.5 C 0 km/h
114 10-01-2011 22:37:04 0.5 C 4.06 g/m*3 0.5 C 0 km/h
115 10-01-2011 22:49:04 0.5 C 4.01 g/m*3 0.5 C 0 km/h
116 10-01-2011 23:01:04 0.5 C 4.01 g/m*3 0.5 C 0 km/h
117 10-01-2011 23:13:04 0.5 C 4.01 g/m*3 0.5 C 0 km/h
118 10-01-2011 23:25:04 0.5 C 4.01 g/m*3 0.5 C 0 km/h
119 10-01-2011 23:37:04 0.6 C 4.09 g/m*3 0.6 C 0 km/h
120 10-01-2011 23:49:04 0.6 C 4.09 g/m*3 0.6 C 0 km/h
121 11-01-2011 00:01:04 0.6 C 4.04 g/m*3 0.6 C 0 km/h
122 11-01-2011 00:13:05 0.5 C 3.96 g/m*3 0.5 C 0 km/h
123 11-01-2011 00:25:05 0.3 C 3.96 g/m*3 0.3 C 0 km/h
124 11-01-2011 00:37:05 -0.2 C 3.82 g/m*3 -0.2 C 0 km/h
125 11-01-2011 00:49:05 -0.4 C 3.86 g/m*3 -0.4 C 0 km/h
Sensor: Nr:Datum:Temp:Abs-Feuchte:Windchill:Wind:
Aussen-T/F 126 11-01-2011 01:01:05 -0.2 C 4.01 g/m*3 -0.2 C 0 km/h
127 11-01-2011 01:13:05 -0.1 C 4.04 g/m*3 -0.1 C 0 km/h
128 11-01-2011 01:25:05 -0.4 C 4.01 g/m*3 -0.4 C 0 km/h
129 11-01-2011 01:37:05 -0.1 C 4.14 g/m*3 -0.1 C 0 km/h
130 11-01-2011 01:49:05 0.2 C 4.22 g/m*3 0.2 C 0 km/h
131 11-01-2011 02:01:05 0.6 C 4.29 g/m*3 0.6 C 0 km/h
132 11-01-2011 02:13:05 0.7 C 4.22 g/m*3 0.7 C 0 km/h
133 11-01-2011 02:25:05 0.8 C 4.2 g/m*3 0.8 C 0 km/h
134 11-01-2011 02:37:05 1 C 4.1 g/m*3 1 C 0 km/h
135 11-01-2011 02:49:05 0.8 C 4.04 g/m*3 0.8 C 0 km/h
136 11-01-2011 03:01:05 0.8 C 4.04 g/m*3 0.8 C 0 km/h
137 11-01-2011 03:13:05 0.8 C 4.04 g/m*3 0.8 C 0 km/h
138 11-01-2011 03:25:05 0.6 C 4.04 g/m*3 0.6 C 0 km/h
139 11-01-2011 03:37:05 0.8 C 4.1 g/m*3 0.8 C 0 km/h
140 11-01-2011 03:49:05 0.6 C 4.04 g/m*3 0.6 C 0 km/h
141 11-01-2011 04:01:05 0.3 C 3.96 g/m*3 0.3 C 0 km/h
142 11-01-2011 04:13:06 0.2 C 3.98 g/m*3 0.2 C 0 km/h
143 11-01-2011 04:25:06 0.1 C 4 g/m*3 0.1 C 0 km/h
144 11-01-2011 04:37:06 0.6 C 4.14 g/m*3 0.6 C 0 km/h
145 11-01-2011 04:49:06 0.9 C 4.18 g/m*3 0.9 C 0 km/h
146 11-01-2011 05:01:06 1.1 C 4.13 g/m*3 1.1 C 0 km/h
147 11-01-2011 05:13:06 1.1 C 4.13 g/m*3 1.1 C 0 km/h
148 11-01-2011 05:25:06 1.1 C 4.13 g/m*3 1.1 C 0 km/h
149 11-01-2011 05:37:06 1.1 C 4.13 g/m*3 1.1 C 0 km/h
150 11-01-2011 05:49:06 1.1 C 4.13 g/m*3 1.1 C 0 km/h
Sensor: Nr:Datum:Temp:Abs-Feuchte:Windchill:Wind:
Aussen-T/F 151 11-01-2011 06:01:06 1.2 C 4.16 g/m*3 1.2 C 0 km/h
152 11-01-2011 06:13:06 1.2 C 4.16 g/m*3 1.2 C 0 km/h
153 11-01-2011 06:25:06 1.3 C 4.19 g/m*3 1.3 C 0 km/h
154 11-01-2011 06:37:06 1.3 C 4.24 g/m*3 1.3 C 0 km/h
155 11-01-2011 06:49:06 1.3 C 4.24 g/m*3 1.3 C 0 km/h
156 11-01-2011 07:01:06 1.4 C 4.27 g/m*3 1.4 C 0 km/h
157 11-01-2011 07:13:06 1.4 C 4.32 g/m*3 1.4 C 0 km/h
158 11-01-2011 07:25:03 1.4 C 4.32 g/m*3 1.4 C 0 km/h
159 11-01-2011 07:37:03 1.4 C 4.32 g/m*3 1.4 C 0 km/h
160 11-01-2011 07:49:02 1.5 C 4.4 g/m*3 1.5 C 0 km/h
161 11-01-2011 08:01:02 1.5 C 4.4 g/m*3 1.5 C 0 km/h
162 11-01-2011 08:13:02 1.5 C 4.4 g/m*3 1.5 C 0 km/h
163 11-01-2011 08:25:03 1.5 C 4.46 g/m*3 1.5 C 0 km/h
164 11-01-2011 08:37:02 1.5 C 4.46 g/m*3 1.5 C 0 km/h
165 11-01-2011 08:49:03 1.5 C 4.51 g/m*3 1.5 C 0 km/h
166 11-01-2011 09:01:02 1.6 C 4.54 g/m*3 1.6 C 0 km/h
167 11-01-2011 09:13:02 1.8 C 4.66 g/m*3 1.8 C 0 km/h
168 11-01-2011 09:25:02 2 C 4.67 g/m*3 2 C 0 km/h
169 11-01-2011 09:37:02 2.3 C 4.71 g/m*3 2.3 C 0 km/h
170 11-01-2011 09:49:02 2.6 C 4.75 g/m*3 2.6 C 0 km/h
171 11-01-2011 10:01:02 2.9 C 4.72 g/m*3 2.9 C 0 km/h
172 11-01-2011 10:13:02 3.2 C 4.7 g/m*3 3.2 C 0 km/h
173 11-01-2011 10:25:02 3.2 C 4.58 g/m*3 3.2 C 0 km/h
174 11-01-2011 10:37:02 3.2 C 4.58 g/m*3 3.2 C 0 km/h
175 11-01-2011 10:49:02 2.7 C 4.54 g/m*3 2.7 C 0 km/h
Sensor: Nr:Datum:Temp:Abs-Feuchte:Windchill:Wind:
Aussen-T/F 176 11-01-2011 11:01:02 2.5 C 4.6 g/m*3 2.5 C 0 km/h
177 11-01-2011 11:13:02 2.6 C 4.75 g/m*3 2.6 C 0 km/h
178 11-01-2011 11:25:02 2.8 C 4.87 g/m*3 2.8 C 0 km/h
179 11-01-2011 11:37:02 3.7 C 5.17 g/m*3 3.7 C 0 km/h
180 11-01-2011 11:49:02 4.8 C 5.1 g/m*3 4.8 C 0 km/h
181 11-01-2011 12:01:02 5.4 C 4.74 g/m*3 5.4 C 0 km/h
182 11-01-2011 12:13:02 5.7 C 4.63 g/m*3 5.7 C 0 km/h
183 11-01-2011 12:25:02 5.7 C 4.55 g/m*3 5.7 C 0 km/h
184 11-01-2011 12:37:01 5.6 C 4.6 g/m*3 5.6 C 0 km/h
185 11-01-2011 12:49:02 5.1 C 4.58 g/m*3 5.1 C 0 km/h
186 11-01-2011 13:01:01 5.2 C 4.75 g/m*3 5.2 C 0 km/h
187 11-01-2011 13:13:01 5.1 C 4.72 g/m*3 5.1 C 0 km/h
188 11-01-2011 13:25:01 5.3 C 4.71 g/m*3 5.3 C 0 km/h
189 11-01-2011 13:37:02 5.5 C 4.85 g/m*3 5.5 C 0 km/h
190 11-01-2011 13:49:02 5.4 C 4.74 g/m*3 5.4 C 0 km/h
191 11-01-2011 14:01:02 5.3 C 4.85 g/m*3 5.3 C 0 km/h
192 11-01-2011 14:13:02 5.3 C 4.92 g/m*3 5.3 C 0 km/h
193 11-01-2011 14:25:02 5.3 C 4.85 g/m*3 5.3 C 0 km/h
194 11-01-2011 14:37:02 5.3 C 4.92 g/m*3 5.3 C 0 km/h
195 11-01-2011 14:49:02 5.3 C 4.92 g/m*3 5.3 C 0 km/h
196 11-01-2011 15:01:02 5.3 C 5.06 g/m*3 5.3 C 0 km/h
197 11-01-2011 15:13:02 5.5 C 5.06 g/m*3 5.5 C 0 km/h
198 11-01-2011 15:25:02 5.6 C 5.02 g/m*3 5.6 C 0 km/h
199 11-01-2011 15:37:02 5.3 C 5.06 g/m*3 5.3 C 0 km/h
200 11-01-2011 15:49:01 5.1 C 5.13 g/m*3 5.1 C 0 km/h
Sensor: Nr:Datum:Temp:Abs-Feuchte:Windchill:Wind:
Aussen-T/F 201 11-01-2011 16:01:01 4.8 C 5.3 g/m*3 4.8 C 0 km/h
202 11-01-2011 16:13:01 4.6 C 5.43 g/m*3 4.6 C 0 km/h
203 11-01-2011 16:25:02 4.5 C 5.46 g/m*3 4.5 C 0 km/h
204 11-01-2011 16:37:01 4.5 C 5.46 g/m*3 4.5 C 0 km/h
205 11-01-2011 16:49:03 4.5 C 5.46 g/m*3 4.5 C 0 km/h
206 11-01-2011 17:01:02 4.7 C 5.53 g/m*3 4.7 C 0 km/h
207 11-01-2011 17:13:02 4.7 C 5.46 g/m*3 4.7 C 0 km/h
208 11-01-2011 17:25:02 5.2 C 5.44 g/m*3 5.2 C 0 km/h
209 11-01-2011 17:37:02 5.4 C 5.44 g/m*3 5.4 C 0 km/h
210 11-01-2011 17:49:02 5.5 C 5.41 g/m*3 5.5 C 0 km/h
211 11-01-2011 18:01:02 5.3 C 5.41 g/m*3 5.3 C 0 km/h
212 11-01-2011 18:13:02 5.3 C 5.48 g/m*3 5.3 C 0 km/h
213 11-01-2011 18:25:02 5.4 C 5.51 g/m*3 5.4 C 0 km/h
214 11-01-2011 18:37:02 5.6 C 5.59 g/m*3 5.6 C 0 km/h
215 11-01-2011 18:49:02 5.8 C 5.59 g/m*3 5.8 C 0 km/h
216 11-01-2011 19:01:01 6 C 5.52 g/m*3 6 C 0 km/h
217 11-01-2011 19:13:01 6 C 5.52 g/m*3 6 C 0 km/h
218 11-01-2011 19:25:01 6 C 5.59 g/m*3 6 C 0 km/h
219 11-01-2011 19:37:02 6 C 5.59 g/m*3 6 C 0 km/h
220 11-01-2011 19:49:02 5.9 C 5.62 g/m*3 5.9 C 0 km/h
221 11-01-2011 20:01:02 6 C 5.59 g/m*3 6 C 0 km/h
222 11-01-2011 20:13:02 6.1 C 5.63 g/m*3 6.1 C 0 km/h
223 11-01-2011 20:25:02 6.1 C 5.63 g/m*3 6.1 C 0 km/h
224 11-01-2011 20:37:02 6.2 C 5.59 g/m*3 6.2 C 0 km/h
225 11-01-2011 20:49:02 6.3 C 5.55 g/m*3 6.3 C 0 km/h
Sensor: Nr:Datum:Temp:Abs-Feuchte:Windchill:Wind:
Aussen-T/F 226 11-01-2011 21:01:02 6.3 C 5.63 g/m*3 6.3 C 0 km/h
227 11-01-2011 21:13:02 6.3 C 5.63 g/m*3 6.3 C 0 km/h
228 11-01-2011 21:25:02 6.1 C 5.63 g/m*3 6.1 C 0 km/h
229 11-01-2011 21:37:02 6.1 C 5.7 g/m*3 6.1 C 0 km/h
230 11-01-2011 21:50:03 6 C 5.73 g/m*3 6 C 0 km/h
231 11-01-2011 22:02:03 5.8 C 5.8 g/m*3 5.8 C 0 km/h
232 11-01-2011 22:14:03 5.9 C 5.91 g/m*3 5.9 C 0 km/h
233 11-01-2011 22:26:03 5.9 C 5.91 g/m*3 5.9 C 0 km/h
234 11-01-2011 22:38:03 6.3 C 6 g/m*3 6.3 C 0 km/h
235 11-01-2011 22:50:03 5.9 C 5.91 g/m*3 5.9 C 0 km/h
236 11-01-2011 23:02:03 5.9 C 6.06 g/m*3 5.9 C 0 km/h
237 11-01-2011 23:14:03 5.9 C 6.06 g/m*3 5.9 C 0 km/h
238 11-01-2011 23:26:03 6 C 6.02 g/m*3 6 C 0 km/h
239 11-01-2011 23:38:03 6.1 C 5.99 g/m*3 6.1 C 0 km/h
240 11-01-2011 23:50:03 6.1 C 5.92 g/m*3 6.1 C 0 km/h
241 12-01-2011 00:02:03 6.3 C 5.77 g/m*3 6.3 C 0 km/h
242 12-01-2011 00:14:03 6.5 C 5.62 g/m*3 6.5 C 0 km/h
243 12-01-2011 00:26:03 6.2 C 5.37 g/m*3 6.2 C 0 km/h
244 12-01-2011 00:38:03 5.9 C 5.26 g/m*3 5.9 C 0 km/h
245 12-01-2011 00:50:04 5.8 C 5.3 g/m*3 5.8 C 0 km/h
246 12-01-2011 01:02:04 5.9 C 5.34 g/m*3 5.9 C 0 km/h
247 12-01-2011 01:14:04 5.8 C 5.3 g/m*3 5.8 C 0 km/h
248 12-01-2011 01:26:04 6 C 5.23 g/m*3 6 C 0 km/h
249 12-01-2011 01:38:04 6 C 5.15 g/m*3 6 C 0 km/h
250 12-01-2011 01:50:04 6.1 C 5.11 g/m*3 6.1 C 0 km/h
Sensor: Nr:Datum:Temp:Abs-Feuchte:Windchill:Wind:
Aussen-T/F 251 12-01-2011 02:02:04 6 C 5.08 g/m*3 6 C 0 km/h
252 12-01-2011 02:14:04 6 C 5.08 g/m*3 6 C 0 km/h
253 12-01-2011 02:26:04 5.9 C 5.12 g/m*3 5.9 C 0 km/h
254 12-01-2011 02:38:04 5.9 C 5.05 g/m*3 5.9 C 0 km/h
255 12-01-2011 02:50:04 5.7 C 4.98 g/m*3 5.7 C 0 km/h
256 12-01-2011 03:02:04 5.5 C 4.99 g/m*3 5.5 C 0 km/h
257 12-01-2011 03:14:04 5 C 5.1 g/m*3 5 C 0 km/h
258 12-01-2011 03:26:04 4.9 C 5.27 g/m*3 4.9 C 0 km/h
259 12-01-2011 03:38:04 4.7 C 5.26 g/m*3 4.7 C 0 km/h
260 12-01-2011 03:50:04 4.5 C 5.26 g/m*3 4.5 C 0 km/h
261 12-01-2011 04:02:04 4.3 C 5.32 g/m*3 4.3 C 0 km/h
262 12-01-2011 04:14:04 4.3 C 5.32 g/m*3 4.3 C 0 km/h
263 12-01-2011 04:26:04 4.1 C 5.31 g/m*3 4.1 C 0 km/h
264 12-01-2011 04:38:04 3.9 C 5.37 g/m*3 3.9 C 0 km/h
265 12-01-2011 04:50:05 3.8 C 5.4 g/m*3 3.8 C 0 km/h
266 12-01-2011 05:02:05 3.8 C 5.33 g/m*3 3.8 C 0 km/h
267 12-01-2011 05:14:05 3.8 C 5.27 g/m*3 3.8 C 0 km/h
268 12-01-2011 05:26:05 3.7 C 5.23 g/m*3 3.7 C 0 km/h
269 12-01-2011 05:38:05 3.7 C 5.17 g/m*3 3.7 C 0 km/h
270 12-01-2011 05:50:05 3.8 C 5.21 g/m*3 3.8 C 0 km/h
271 12-01-2011 06:02:05 3.6 C 5.14 g/m*3 3.6 C 0 km/h
272 12-01-2011 06:14:05 3.5 C 5.16 g/m*3 3.5 C 0 km/h
273 12-01-2011 06:26:05 3.6 C 5.14 g/m*3 3.6 C 0 km/h
274 12-01-2011 06:38:05 3.6 C 5.14 g/m*3 3.6 C 0 km/h
275 12-01-2011 06:50:05 3.5 C 5.04 g/m*3 3.5 C 0 km/h
Sensor: Nr:Datum:Temp:Abs-Feuchte:Windchill:Wind:
Aussen-T/F 276 12-01-2011 07:02:02 3.5 C 5.04 g/m*3 3.5 C 0 km/h
277 12-01-2011 07:14:02 3.6 C 5.08 g/m*3 3.6 C 0 km/h
278 12-01-2011 07:26:02 3.3 C 4.97 g/m*3 3.3 C 0 km/h
279 12-01-2011 07:38:02 3.1 C 4.97 g/m*3 3.1 C 0 km/h
280 12-01-2011 07:50:01 3.1 C 5.03 g/m*3 3.1 C 0 km/h
281 12-01-2011 08:02:01 3 C 4.99 g/m*3 3 C 0 km/h
282 12-01-2011 08:14:01 2.8 C 4.93 g/m*3 2.8 C 0 km/h
283 12-01-2011 08:26:01 3.1 C 5.03 g/m*3 3.1 C 0 km/h
284 12-01-2011 08:38:01 3 C 4.99 g/m*3 3 C 0 km/h
285 12-01-2011 08:50:01 3 C 4.99 g/m*3 3 C 0 km/h
286 12-01-2011 09:02:01 3.5 C 5.16 g/m*3 3.5 C 0 km/h
287 12-01-2011 09:14:01 3.5 C 5.04 g/m*3 3.5 C 0 km/h
288 12-01-2011 09:26:02 3.7 C 5.11 g/m*3 3.7 C 0 km/h
289 12-01-2011 09:38:01 4 C 4.96 g/m*3 4 C 0 km/h
290 12-01-2011 09:50:02 4.5 C 4.93 g/m*3 4.5 C 0 km/h
291 12-01-2011 10:02:02 4.6 C 4.83 g/m*3 4.6 C 0 km/h
292 12-01-2011 10:14:02 4.7 C 4.93 g/m*3 4.7 C 0 km/h
293 12-01-2011 10:26:01 4.9 C 4.93 g/m*3 4.9 C 0 km/h
294 12-01-2011 10:38:02 4.9 C 4.86 g/m*3 4.9 C 0 km/h
295 12-01-2011 10:50:02 5 C 4.82 g/m*3 5 C 0 km/h
296 12-01-2011 11:02:02 5.1 C 4.86 g/m*3 5.1 C 0 km/h
297 12-01-2011 11:14:02 5.2 C 4.82 g/m*3 5.2 C 0 km/h
298 12-01-2011 11:26:01 5.4 C 4.81 g/m*3 5.4 C 0 km/h
299 12-01-2011 11:38:02 5.3 C 4.85 g/m*3 5.3 C 0 km/h
300 12-01-2011 11:50:01 5.3 C 4.92 g/m*3 5.3 C 0 km/h
Sensor: Nr:Datum:Temp:Abs-Feuchte:Windchill:Wind:
Aussen-T/F 301 12-01-2011 12:02:02 5.2 C 4.96 g/m*3 5.2 C 0 km/h
302 12-01-2011 12:14:02 5 C 5.03 g/m*3 5 C 0 km/h
303 12-01-2011 12:26:02 4.8 C 5.1 g/m*3 4.8 C 0 km/h
304 12-01-2011 12:38:02 4.7 C 5.13 g/m*3 4.7 C 0 km/h
305 12-01-2011 12:50:02 4.7 C 5.2 g/m*3 4.7 C 0 km/h
306 12-01-2011 13:02:02 4.7 C 5.2 g/m*3 4.7 C 0 km/h
307 12-01-2011 13:14:03 4.9 C 5.33 g/m*3 4.9 C 0 km/h
308 12-01-2011 13:26:01 5 C 5.37 g/m*3 5 C 0 km/h
309 12-01-2011 13:38:46 5 C 5.44 g/m*3 5 C 0 km/h
310 12-01-2011 13:50:02 4.9 C 5.54 g/m*3 4.9 C 0 km/h
311 12-01-2011 14:02:02 5 C 5.5 g/m*3 5 C 0 km/h
312 12-01-2011 14:14:02 5.1 C 5.47 g/m*3 5.1 C 0 km/h
313 12-01-2011 14:26:02 5.1 C 5.54 g/m*3 5.1 C 0 km/h
314 12-01-2011 14:38:02 5.1 C 5.54 g/m*3 5.1 C 0 km/h
315 12-01-2011 14:50:02 5.3 C 5.54 g/m*3 5.3 C 0 km/h
316 12-01-2011 15:02:01 5.6 C 5.51 g/m*3 5.6 C 0 km/h
317 12-01-2011 15:14:01 5.4 C 5.44 g/m*3 5.4 C 0 km/h
318 12-01-2011 15:26:02 5.2 C 5.44 g/m*3 5.2 C 0 km/h
319 12-01-2011 15:38:02 5.3 C 5.54 g/m*3 5.3 C 0 km/h
320 12-01-2011 15:50:02 5.6 C 5.59 g/m*3 5.6 C 0 km/h
321 12-01-2011 16:02:02 6 C 5.44 g/m*3 6 C 0 km/h
322 12-01-2011 16:14:02 5.9 C 5.48 g/m*3 5.9 C 0 km/h
323 12-01-2011 16:26:02 6 C 5.44 g/m*3 6 C 0 km/h
324 12-01-2011 16:38:02 6.1 C 5.48 g/m*3 6.1 C 0 km/h
325 12-01-2011 16:50:02 6.2 C 5.52 g/m*3 6.2 C 0 km/h
Sensor: Nr:Datum:Temp:Abs-Feuchte:Windchill:Wind:
Aussen-T/F 326 12-01-2011 17:02:02 6.2 C 5.52 g/m*3 6.2 C 0 km/h
327 12-01-2011 17:14:02 6.3 C 5.55 g/m*3 6.3 C 0 km/h
328 12-01-2011 17:26:02 6.4 C 5.59 g/m*3 6.4 C 0 km/h
329 12-01-2011 17:38:02 6 C 5.59 g/m*3 6 C 0 km/h
330 12-01-2011 17:50:01 6.1 C 5.77 g/m*3 6.1 C 0 km/h
331 12-01-2011 18:02:02 6.3 C 5.77 g/m*3 6.3 C 0 km/h
332 12-01-2011 18:14:02 6 C 5.81 g/m*3 6 C 0 km/h
333 12-01-2011 18:26:01 6 C 5.88 g/m*3 6 C 0 km/h
334 12-01-2011 18:38:01 6.2 C 6.03 g/m*3 6.2 C 0 km/h
335 12-01-2011 18:50:01 6.1 C 6.06 g/m*3 6.1 C 0 km/h
336 12-01-2011 19:02:01 6.1 C 6.06 g/m*3 6.1 C 0 km/h
337 12-01-2011 19:14:01 6 C 6.1 g/m*3 6 C 0 km/h
338 12-01-2011 19:26:02 6.3 C 6.22 g/m*3 6.3 C 0 km/h
339 12-01-2011 19:38:01 6.5 C 6.22 g/m*3 6.5 C 0 km/h
340 12-01-2011 19:50:02 6.6 C 6.27 g/m*3 6.6 C 0 km/h
341 12-01-2011 20:02:02 6.9 C 6.31 g/m*3 6.9 C 0 km/h
342 12-01-2011 20:14:02 6.8 C 6.27 g/m*3 6.8 C 0 km/h
343 12-01-2011 20:26:02 7 C 6.28 g/m*3 7 C 0 km/h
344 12-01-2011 20:38:02 7.1 C 6.24 g/m*3 7.1 C 0 km/h
345 12-01-2011 20:50:02 7.1 C 6.32 g/m*3 7.1 C 0 km/h
346 12-01-2011 21:02:01 7.1 C 6.4 g/m*3 7.1 C 0 km/h
347 12-01-2011 21:14:01 7.2 C 6.44 g/m*3 7.2 C 0 km/h
348 12-01-2011 21:26:02 7.5 C 6.64 g/m*3 7.5 C 0 km/h
349 12-01-2011 21:38:02 7.5 C 6.56 g/m*3 7.5 C 0 km/h
350 12-01-2011 21:50:02 7.4 C 6.52 g/m*3 7.4 C 0 km/h
Sensor: Nr:Datum:Temp:Abs-Feuchte:Windchill:Wind:
Aussen-T/F 351 12-01-2011 22:02:02 7.7 C 6.73 g/m*3 7.7 C 0 km/h
352 12-01-2011 22:14:02 7.7 C 6.65 g/m*3 7.7 C 0 km/h
353 12-01-2011 22:26:02 7.9 C 6.74 g/m*3 7.9 C 0 km/h
354 12-01-2011 22:38:02 8.2 C 6.7 g/m*3 8.2 C 0 km/h
355 12-01-2011 22:50:02 8.3 C 6.74 g/m*3 8.3 C 0 km/h
356 12-01-2011 23:02:02 8.5 C 6.74 g/m*3 8.5 C 0 km/h
357 12-01-2011 23:14:02 8.7 C 6.83 g/m*3 8.7 C 0 km/h
358 12-01-2011 23:26:01 8.8 C 6.88 g/m*3 8.8 C 0 km/h
359 12-01-2011 23:38:02 8.9 C 6.83 g/m*3 8.9 C 0 km/h
360 12-01-2011 23:50:02 8.9 C 6.83 g/m*3 8.9 C 0 km/h
361 13-01-2011 00:02:02 9 C 6.88 g/m*3 9 C 0 km/h
362 13-01-2011 00:14:02 9.3 C 6.92 g/m*3 9.3 C 0 km/h
363 13-01-2011 00:26:02 9.3 C 7.01 g/m*3 9.3 C 0 km/h
364 13-01-2011 00:38:02 9.4 C 7.05 g/m*3 9.4 C 0 km/h
365 13-01-2011 00:50:01 9.5 C 7.1 g/m*3 9.5 C 0 km/h
366 13-01-2011 01:02:02 9.7 C 7.19 g/m*3 9.7 C 0 km/h
367 13-01-2011 01:14:02 9.9 C 7.28 g/m*3 9.9 C 0 km/h
368 13-01-2011 01:26:02 10 C 7.24 g/m*3 10 C 0 km/h
369 13-01-2011 01:38:02 10.1 C 7.28 g/m*3 10.1 C 0 km/h
370 13-01-2011 01:50:02 10.2 C 7.33 g/m*3 10.2 C 0 km/h
371 13-01-2011 02:02:02 10.5 C 7.37 g/m*3 10.5 C 0 km/h
372 13-01-2011 02:14:02 10.7 C 7.56 g/m*3 10.7 C 0 km/h
373 13-01-2011 02:26:02 10.7 C 7.56 g/m*3 10.7 C 0 km/h
374 13-01-2011 02:38:01 10.7 C 7.66 g/m*3 10.7 C 0 km/h
375 13-01-2011 02:50:02 10.4 C 7.61 g/m*3 10.4 C 0 km/h
Sensor: Nr:Datum:Temp:Abs-Feuchte:Windchill:Wind:
Aussen-T/F 376 13-01-2011 03:02:02 10.4 C 7.71 g/m*3 10.4 C 0 km/h
377 13-01-2011 03:14:01 10.3 C 7.85 g/m*3 10.3 C 0 km/h
378 13-01-2011 03:26:01 10.3 C 7.85 g/m*3 10.3 C 0 km/h
379 13-01-2011 03:38:02 10.3 C 7.85 g/m*3 10.3 C 0 km/h
380 13-01-2011 03:50:02 10.3 C 7.95 g/m*3 10.3 C 0 km/h
381 13-01-2011 04:02:01 10.5 C 8.05 g/m*3 10.5 C 0 km/h
382 13-01-2011 04:14:01 10.6 C 8.1 g/m*3 10.6 C 0 km/h
383 13-01-2011 04:26:02 10.9 C 8.16 g/m*3 10.9 C 0 km/h
384 13-01-2011 04:38:01 10.7 C 7.96 g/m*3 10.7 C 0 km/h
385 13-01-2011 04:50:02 10.8 C 8.01 g/m*3 10.8 C 0 km/h
386 13-01-2011 05:02:01 11 C 8.01 g/m*3 11 C 0 km/h
387 13-01-2011 05:14:01 11.1 C 8.16 g/m*3 11.1 C 0 km/h
388 13-01-2011 05:26:01 10.7 C 8.05 g/m*3 10.7 C 0 km/h
389 13-01-2011 05:38:02 10.8 C 8.2 g/m*3 10.8 C 0 km/h
390 13-01-2011 05:50:01 10.6 C 8.2 g/m*3 10.6 C 0 km/h
391 13-01-2011 06:02:02 10.7 C 8.25 g/m*3 10.7 C 0 km/h
392 13-01-2011 06:14:02 10.5 C 8.24 g/m*3 10.5 C 0 km/h
393 13-01-2011 06:26:01 10.6 C 8.3 g/m*3 10.6 C 0 km/h
394 13-01-2011 06:38:02 10.6 C 8.39 g/m*3 10.6 C 0 km/h
395 13-01-2011 06:50:01 10.5 C 8.34 g/m*3 10.5 C 0 km/h
396 13-01-2011 07:02:01 10.6 C 8.39 g/m*3 10.6 C 0 km/h
397 13-01-2011 07:14:02 10.5 C 8.44 g/m*3 10.5 C 0 km/h
398 13-01-2011 07:26:01 10.7 C 8.55 g/m*3 10.7 C 0 km/h
399 13-01-2011 07:38:01 10.7 C 8.45 g/m*3 10.7 C 0 km/h
400 13-01-2011 07:50:01 10.8 C 8.5 g/m*3 10.8 C 0 km/h
Sensor: Nr:Datum:Temp:Abs-Feuchte:Windchill:Wind:
Aussen-T/F 401 13-01-2011 08:02:01 10.9 C 8.55 g/m*3 10.9 C 0 km/h
402 13-01-2011 08:14:01 10.8 C 8.5 g/m*3 10.8 C 0 km/h
403 13-01-2011 08:26:02 10.8 C 8.4 g/m*3 10.8 C 0 km/h
404 13-01-2011 08:38:01 10.8 C 8.4 g/m*3 10.8 C 0 km/h
405 13-01-2011 08:50:02 10.9 C 8.45 g/m*3 10.9 C 0 km/h
406 13-01-2011 09:02:01 10.9 C 8.45 g/m*3 10.9 C 0 km/h
407 13-01-2011 09:14:01 11.2 C 8.51 g/m*3 11.2 C 0 km/h
408 13-01-2011 09:26:02 11.4 C 8.52 g/m*3 11.4 C 0 km/h
409 13-01-2011 09:38:01 11.4 C 8.42 g/m*3 11.4 C 0 km/h
410 13-01-2011 09:50:02 11.4 C 8.31 g/m*3 11.4 C 0 km/h
411 13-01-2011 10:02:01 11.5 C 8.37 g/m*3 11.5 C 0 km/h
412 13-01-2011 10:14:01 11.9 C 8.47 g/m*3 11.9 C 0 km/h
413 13-01-2011 10:26:01 11.8 C 8.31 g/m*3 11.8 C 0 km/h
414 13-01-2011 10:38:02 12.2 C 8.2 g/m*3 12.2 C 0 km/h
415 13-01-2011 10:50:01 12.3 C 8.25 g/m*3 12.3 C 0 km/h
416 13-01-2011 11:02:02 12.5 C 8.36 g/m*3 12.5 C 0 km/h
417 13-01-2011 11:14:02 12.3 C 8.25 g/m*3 12.3 C 0 km/h
418 13-01-2011 11:26:01 12.6 C 8.19 g/m*3 12.6 C 0 km/h
419 13-01-2011 11:38:01 12.5 C 8.25 g/m*3 12.5 C 0 km/h
420 13-01-2011 11:50:01 12.7 C 8.24 g/m*3 12.7 C 0 km/h
421 13-01-2011 12:02:01 12.6 C 8.3 g/m*3 12.6 C 0 km/h
422 13-01-2011 12:14:02 12.5 C 8.25 g/m*3 12.5 C 0 km/h
423 13-01-2011 12:26:01 12.4 C 8.3 g/m*3 12.4 C 0 km/h
424 13-01-2011 12:38:01 12.4 C 8.41 g/m*3 12.4 C 0 km/h
425 13-01-2011 12:50:01 12.4 C 8.3 g/m*3 12.4 C 0 km/h
Sensor: Nr:Datum:Temp:Abs-Feuchte:Windchill:Wind:
Aussen-T/F 426 13-01-2011 13:02:01 12.2 C 8.42 g/m*3 12.2 C 0 km/h
427 13-01-2011 13:14:01 12.2 C 8.42 g/m*3 12.2 C 0 km/h
428 13-01-2011 13:26:02 12.7 C 8.46 g/m*3 12.7 C 0 km/h
429 13-01-2011 13:38:01 12.7 C 8.35 g/m*3 12.7 C 0 km/h
430 13-01-2011 13:50:02 12.9 C 8.34 g/m*3 12.9 C 0 km/h
431 13-01-2011 14:02:01 13 C 8.28 g/m*3 13 C 0 km/h
432 13-01-2011 14:14:01 13 C 8.28 g/m*3 13 C 0 km/h
433 13-01-2011 14:26:02 13.2 C 8.27 g/m*3 13.2 C 0 km/h
434 13-01-2011 14:38:01 13.4 C 8.37 g/m*3 13.4 C 0 km/h
435 13-01-2011 14:50:01 13.3 C 8.2 g/m*3 13.3 C 0 km/h
436 13-01-2011 15:02:01 13.1 C 8.22 g/m*3 13.1 C 0 km/h
437 13-01-2011 15:14:01 13.2 C 8.27 g/m*3 13.2 C 0 km/h
438 13-01-2011 15:26:01 13.1 C 8.22 g/m*3 13.1 C 0 km/h
439 13-01-2011 15:38:02 13 C 8.28 g/m*3 13 C 0 km/h
440 13-01-2011 15:50:01 12.9 C 8.34 g/m*3 12.9 C 0 km/h
441 13-01-2011 16:02:02 12.9 C 8.45 g/m*3 12.9 C 0 km/h
442 13-01-2011 16:14:02 12.9 C 8.45 g/m*3 12.9 C 0 km/h
443 13-01-2011 16:26:01 13 C 8.39 g/m*3 13 C 0 km/h
444 13-01-2011 16:38:01 12.8 C 8.51 g/m*3 12.8 C 0 km/h
445 13-01-2011 16:50:01 12.9 C 8.57 g/m*3 12.9 C 0 km/h
446 13-01-2011 17:02:01 12.8 C 8.51 g/m*3 12.8 C 0 km/h
447 13-01-2011 17:14:02 12.9 C 8.57 g/m*3 12.9 C 0 km/h
448 13-01-2011 17:26:01 12.7 C 8.46 g/m*3 12.7 C 0 km/h
449 13-01-2011 17:38:01 12.9 C 8.57 g/m*3 12.9 C 0 km/h
450 13-01-2011 17:50:01 13 C 8.39 g/m*3 13 C 0 km/h
Sensor: Nr:Datum:Temp:Abs-Feuchte:Windchill:Wind:
Aussen-T/F 451 13-01-2011 18:02:01 13 C 8.39 g/m*3 13 C 0 km/h
452 13-01-2011 18:14:01 12.9 C 8.45 g/m*3 12.9 C 0 km/h
453 13-01-2011 18:26:02 12.7 C 8.35 g/m*3 12.7 C 0 km/h
454 13-01-2011 18:38:01 12.8 C 8.51 g/m*3 12.8 C 0 km/h
455 13-01-2011 18:50:02 12.8 C 8.4 g/m*3 12.8 C 0 km/h
456 13-01-2011 19:02:01 12.9 C 8.57 g/m*3 12.9 C 0 km/h
457 13-01-2011 19:14:01 12.8 C 8.51 g/m*3 12.8 C 0 km/h
458 13-01-2011 19:26:02 12.8 C 8.51 g/m*3 12.8 C 0 km/h
459 13-01-2011 19:38:02 12.8 C 8.51 g/m*3 12.8 C 0 km/h
460 13-01-2011 19:50:01 12.8 C 8.4 g/m*3 12.8 C 0 km/h
461 13-01-2011 20:02:02 12.8 C 8.51 g/m*3 12.8 C 0 km/h
462 13-01-2011 20:14:02 12.7 C 8.46 g/m*3 12.7 C 0 km/h
463 13-01-2011 20:26:01 12.6 C 8.52 g/m*3 12.6 C 0 km/h
464 13-01-2011 20:38:01 12.7 C 8.57 g/m*3 12.7 C 0 km/h
465 13-01-2011 20:50:01 12.7 C 8.57 g/m*3 12.7 C 0 km/h
466 13-01-2011 21:02:01 12.7 C 8.46 g/m*3 12.7 C 0 km/h
467 13-01-2011 21:14:01 12.7 C 8.46 g/m*3 12.7 C 0 km/h
468 13-01-2011 21:26:01 12.8 C 8.51 g/m*3 12.8 C 0 km/h
469 13-01-2011 21:38:01 13 C 8.39 g/m*3 13 C 0 km/h
470 13-01-2011 21:50:01 12.9 C 8.45 g/m*3 12.9 C 0 km/h
471 13-01-2011 22:02:01 12.9 C 8.45 g/m*3 12.9 C 0 km/h
472 13-01-2011 22:14:01 12.8 C 8.4 g/m*3 12.8 C 0 km/h
473 13-01-2011 22:26:01 12.8 C 8.29 g/m*3 12.8 C 0 km/h
474 13-01-2011 22:38:02 12.8 C 8.29 g/m*3 12.8 C 0 km/h
475 13-01-2011 22:50:01 12.8 C 8.29 g/m*3 12.8 C 0 km/h
Sensor: Nr:Datum:Temp:Abs-Feuchte:Windchill:Wind:
Aussen-T/F 476 13-01-2011 23:02:02 12.9 C 8.34 g/m*3 12.9 C 0 km/h
477 13-01-2011 23:14:02 12.7 C 8.24 g/m*3 12.7 C 0 km/h
478 13-01-2011 23:26:01 12.7 C 8.24 g/m*3 12.7 C 0 km/h
479 13-01-2011 23:38:02 12.7 C 8.24 g/m*3 12.7 C 0 km/h
480 13-01-2011 23:50:01 12.7 C 8.24 g/m*3 12.7 C 0 km/h
481 14-01-2011 00:02:02 12.7 C 8.24 g/m*3 12.7 C 0 km/h
482 14-01-2011 00:14:02 12.5 C 8.14 g/m*3 12.5 C 0 km/h
483 14-01-2011 00:26:01 12.4 C 8.09 g/m*3 12.4 C 0 km/h
484 14-01-2011 00:38:02 12.5 C 8.14 g/m*3 12.5 C 0 km/h
485 14-01-2011 00:50:01 12.7 C 8.13 g/m*3 12.7 C 0 km/h
486 14-01-2011 01:02:02 12.5 C 8.14 g/m*3 12.5 C 0 km/h
487 14-01-2011 01:14:02 12.4 C 8.09 g/m*3 12.4 C 0 km/h
488 14-01-2011 01:26:01 12.5 C 8.14 g/m*3 12.5 C 0 km/h
489 14-01-2011 01:38:02 12.6 C 8.08 g/m*3 12.6 C 0 km/h
490 14-01-2011 01:50:01 12.5 C 8.03 g/m*3 12.5 C 0 km/h
491 14-01-2011 02:02:02 12.4 C 7.98 g/m*3 12.4 C 0 km/h
492 14-01-2011 02:14:02 12.3 C 7.93 g/m*3 12.3 C 0 km/h
493 14-01-2011 02:26:01 12.3 C 7.93 g/m*3 12.3 C 0 km/h
494 14-01-2011 02:38:01 12.3 C 7.93 g/m*3 12.3 C 0 km/h
495 14-01-2011 02:50:01 12.4 C 7.98 g/m*3 12.4 C 0 km/h
496 14-01-2011 03:02:01 12.2 C 7.88 g/m*3 12.2 C 0 km/h
497 14-01-2011 03:14:01 12.4 C 7.98 g/m*3 12.4 C 0 km/h
498 14-01-2011 03:26:02 12.2 C 7.77 g/m*3 12.2 C 0 km/h
499 14-01-2011 03:38:01 12.2 C 7.77 g/m*3 12.2 C 0 km/h
500 14-01-2011 03:50:01 12.2 C 7.77 g/m*3 12.2 C 0 km/h
Sensor: Nr:Datum:Temp:Abs-Feuchte:Windchill:Wind:
Aussen-T/F 501 14-01-2011 04:02:02 12.2 C 7.77 g/m*3 12.2 C 0 km/h
502 14-01-2011 04:14:02 12.2 C 7.88 g/m*3 12.2 C 0 km/h
503 14-01-2011 04:26:01 12.4 C 7.87 g/m*3 12.4 C 0 km/h
504 14-01-2011 04:38:01 12.2 C 7.77 g/m*3 12.2 C 0 km/h
505 14-01-2011 04:50:01 12.2 C 7.77 g/m*3 12.2 C 0 km/h
506 14-01-2011 05:02:01 12.1 C 7.83 g/m*3 12.1 C 0 km/h
507 14-01-2011 05:14:01 12.1 C 7.83 g/m*3 12.1 C 0 km/h
508 14-01-2011 05:26:01 12.3 C 7.82 g/m*3 12.3 C 0 km/h
509 14-01-2011 05:38:01 12.5 C 7.81 g/m*3 12.5 C 0 km/h
510 14-01-2011 05:50:01 12.3 C 7.71 g/m*3 12.3 C 0 km/h
511 14-01-2011 06:02:01 12.4 C 7.65 g/m*3 12.4 C 0 km/h
512 14-01-2011 06:14:01 12.6 C 7.63 g/m*3 12.6 C 0 km/h
513 14-01-2011 06:26:02 12.5 C 7.59 g/m*3 12.5 C 0 km/h
514 14-01-2011 06:38:01 12.7 C 7.57 g/m*3 12.7 C 0 km/h
515 14-01-2011 06:50:02 12.6 C 7.63 g/m*3 12.6 C 0 km/h
516 14-01-2011 07:02:01 12.3 C 7.6 g/m*3 12.3 C 0 km/h
517 14-01-2011 07:14:01 12.3 C 7.49 g/m*3 12.3 C 0 km/h
518 14-01-2011 07:26:02 12.4 C 7.43 g/m*3 12.4 C 0 km/h
519 14-01-2011 07:38:01 12.2 C 7.12 g/m*3 12.2 C 0 km/h
520 14-01-2011 07:50:01 12.3 C 7.17 g/m*3 12.3 C 0 km/h
521 14-01-2011 08:02:01 12.1 C 7.08 g/m*3 12.1 C 0 km/h
522 14-01-2011 08:14:01 12.2 C 7.01 g/m*3 12.2 C 0 km/h
523 14-01-2011 08:26:02 11.7 C 7.01 g/m*3 11.7 C 0 km/h
524 14-01-2011 08:38:01 11.2 C 6.89 g/m*3 11.2 C 0 km/h
525 14-01-2011 08:50:02 11.1 C 6.95 g/m*3 11.1 C 0 km/h
Sensor: Nr:Datum:Temp:Abs-Feuchte:Windchill:Wind:
Aussen-T/F 526 14-01-2011 09:02:01 11.2 C 6.99 g/m*3 11.2 C 0 km/h
527 14-01-2011 09:14:01 11.4 C 6.77 g/m*3 11.4 C 0 km/h
528 14-01-2011 09:26:01 11.6 C 6.86 g/m*3 11.6 C 0 km/h
529 14-01-2011 09:38:01 11.6 C 6.76 g/m*3 11.6 C 0 km/h
530 14-01-2011 09:50:01 11.5 C 6.82 g/m*3 11.5 C 0 km/h
531 14-01-2011 10:02:01 11.8 C 6.84 g/m*3 11.8 C 0 km/h
532 14-01-2011 10:14:01 11.9 C 6.78 g/m*3 11.9 C 0 km/h
533 14-01-2011 10:26:01 11.9 C 6.78 g/m*3 11.9 C 0 km/h
534 14-01-2011 10:38:02 11.3 C 6.53 g/m*3 11.3 C 0 km/h
535 14-01-2011 10:50:01 11.8 C 6.63 g/m*3 11.8 C 0 km/h
536 14-01-2011 11:02:02 12 C 6.61 g/m*3 12 C 0 km/h
537 14-01-2011 11:14:02 11.9 C 6.67 g/m*3 11.9 C 0 km/h
538 14-01-2011 11:26:01 12 C 6.61 g/m*3 12 C 0 km/h
539 14-01-2011 11:38:02 12 C 6.61 g/m*3 12 C 0 km/h
540 14-01-2011 11:50:01 12.2 C 6.58 g/m*3 12.2 C 0 km/h
541 14-01-2011 12:02:01 12 C 6.5 g/m*3 12 C 0 km/h
542 14-01-2011 12:14:02 12.2 C 6.58 g/m*3 12.2 C 0 km/h
543 14-01-2011 12:26:01 12.3 C 6.52 g/m*3 12.3 C 0 km/h
544 14-01-2011 12:38:01 12.2 C 6.58 g/m*3 12.2 C 0 km/h
545 14-01-2011 12:50:01 12 C 6.5 g/m*3 12 C 0 km/h
546 14-01-2011 13:02:01 12 C 6.61 g/m*3 12 C 0 km/h
547 14-01-2011 13:14:01 12 C 6.71 g/m*3 12 C 0 km/h
548 14-01-2011 13:26:02 12 C 6.61 g/m*3 12 C 0 km/h
549 14-01-2011 13:38:01 12 C 6.61 g/m*3 12 C 0 km/h
550 14-01-2011 13:50:02 12 C 6.61 g/m*3 12 C 0 km/h
Sensor: Nr:Datum:Temp:Abs-Feuchte:Windchill:Wind:
Aussen-T/F 551 14-01-2011 14:02:01 11.8 C 6.74 g/m*3 11.8 C 0 km/h
552 14-01-2011 14:14:01 11.7 C 6.8 g/m*3 11.7 C 0 km/h
553 14-01-2011 14:26:02 11.6 C 6.86 g/m*3 11.6 C 0 km/h
554 14-01-2011 14:38:01 11.5 C 6.82 g/m*3 11.5 C 0 km/h
555 14-01-2011 14:50:02 11.6 C 6.86 g/m*3 11.6 C 0 km/h
556 14-01-2011 15:02:01 11.8 C 6.74 g/m*3 11.8 C 0 km/h
557 14-01-2011 15:14:01 12 C 6.61 g/m*3 12 C 0 km/h
558 14-01-2011 15:26:01 12.2 C 6.47 g/m*3 12.2 C 0 km/h
559 14-01-2011 15:38:02 12.4 C 6.45 g/m*3 12.4 C 0 km/h
560 14-01-2011 15:50:01 12.2 C 6.47 g/m*3 12.2 C 0 km/h
561 14-01-2011 16:02:02 12.2 C 6.37 g/m*3 12.2 C 0 km/h
562 14-01-2011 16:14:02 12.1 C 6.43 g/m*3 12.1 C 0 km/h
563 14-01-2011 16:26:01 12 C 6.39 g/m*3 12 C 0 km/h
564 14-01-2011 16:38:01 11.9 C 6.46 g/m*3 11.9 C 0 km/h
565 14-01-2011 16:50:01 11.6 C 6.34 g/m*3 11.6 C 0 km/h
566 14-01-2011 17:02:01 11.6 C 6.34 g/m*3 11.6 C 0 km/h
567 14-01-2011 17:14:01 11.6 C 6.44 g/m*3 11.6 C 0 km/h
568 14-01-2011 17:26:01 11.5 C 6.3 g/m*3 11.5 C 0 km/h
569 14-01-2011 17:38:01 11.5 C 6.3 g/m*3 11.5 C 0 km/h
570 14-01-2011 17:50:01 11.4 C 6.26 g/m*3 11.4 C 0 km/h
571 14-01-2011 18:02:01 11.2 C 6.28 g/m*3 11.2 C 0 km/h
572 14-01-2011 18:14:01 11 C 6.31 g/m*3 11 C 0 km/h
573 14-01-2011 18:26:02 11.3 C 6.32 g/m*3 11.3 C 0 km/h
574 14-01-2011 18:38:01 10.8 C 6.33 g/m*3 10.8 C 0 km/h
575 14-01-2011 18:50:02 10.9 C 6.37 g/m*3 10.9 C 0 km/h
Sensor: Nr:Datum:Temp:Abs-Feuchte:Windchill:Wind:
Aussen-T/F 576 14-01-2011 19:02:01 10.8 C 6.33 g/m*3 10.8 C 0 km/h
577 14-01-2011 19:14:01 10.7 C 6.29 g/m*3 10.7 C 0 km/h
578 14-01-2011 19:26:01 11 C 6.21 g/m*3 11 C 0 km/h
579 14-01-2011 19:38:01 11.3 C 6.22 g/m*3 11.3 C 0 km/h
580 14-01-2011 19:50:01 11.9 C 6.14 g/m*3 11.9 C 0 km/h
581 14-01-2011 20:02:01 11.9 C 6.04 g/m*3 11.9 C 0 km/h
582 14-01-2011 20:14:01 11.8 C 6.1 g/m*3 11.8 C 0 km/h
583 14-01-2011 20:26:01 11.8 C 6.1 g/m*3 11.8 C 0 km/h
584 14-01-2011 20:38:02 11.5 C 6.09 g/m*3 11.5 C 0 km/h
585 14-01-2011 20:50:01 11.4 C 6.06 g/m*3 11.4 C 0 km/h
586 14-01-2011 21:02:02 11.4 C 6.06 g/m*3 11.4 C 0 km/h
587 14-01-2011 21:14:02 11.4 C 5.95 g/m*3 11.4 C 0 km/h
588 14-01-2011 21:26:01 11.4 C 6.06 g/m*3 11.4 C 0 km/h
589 14-01-2011 21:38:01 11.4 C 5.95 g/m*3 11.4 C 0 km/h
590 14-01-2011 21:50:01 11.4 C 6.06 g/m*3 11.4 C 0 km/h
591 14-01-2011 22:04:03 11.2 C 6.08 g/m*3 11.2 C 0 km/h
592 14-01-2011 22:16:03 11.1 C 6.14 g/m*3 11.1 C 0 km/h
593 14-01-2011 22:28:03 11.1 C 6.25 g/m*3 11.1 C 0 km/h
594 14-01-2011 22:40:03 10.6 C 6.34 g/m*3 10.6 C 0 km/h
595 14-01-2011 22:52:03 10.1 C 6.43 g/m*3 10.1 C 0 km/h
596 14-01-2011 23:04:03 10 C 6.58 g/m*3 10 C 0 km/h
597 14-01-2011 23:16:03 9.5 C 6.74 g/m*3 9.5 C 0 km/h
598 14-01-2011 23:28:03 9.1 C 6.92 g/m*3 9.1 C 0 km/h
599 14-01-2011 23:40:03 9.1 C 6.92 g/m*3 9.1 C 0 km/h
600 14-01-2011 23:52:03 8.5 C 6.66 g/m*3 8.5 C 0 km/h
Sensor: Nr:Datum:Temp:Abs-Feuchte:Windchill:Wind:
Aussen-T/F 601 15-01-2011 00:04:03 8.3 C 6.74 g/m*3 8.3 C 0 km/h
602 15-01-2011 00:16:03 8 C 6.7 g/m*3 8 C 0 km/h
603 15-01-2011 00:28:03 8.5 C 6.74 g/m*3 8.5 C 0 km/h
604 15-01-2011 00:40:03 8.1 C 6.49 g/m*3 8.1 C 0 km/h
605 15-01-2011 00:52:03 8.2 C 6.53 g/m*3 8.2 C 0 km/h
606 15-01-2011 01:04:03 8.1 C 6.49 g/m*3 8.1 C 0 km/h
607 15-01-2011 01:16:03 8.3 C 6.49 g/m*3 8.3 C 0 km/h
608 15-01-2011 01:28:03 8.5 C 6.32 g/m*3 8.5 C 0 km/h
609 15-01-2011 01:40:03 8.2 C 6.36 g/m*3 8.2 C 0 km/h
610 15-01-2011 01:52:03 8 C 6.37 g/m*3 8 C 0 km/h
611 15-01-2011 02:04:04 8.4 C 6.45 g/m*3 8.4 C 0 km/h
612 15-01-2011 02:16:04 8.3 C 6.41 g/m*3 8.3 C 0 km/h
613 15-01-2011 02:28:04 8.1 C 6.32 g/m*3 8.1 C 0 km/h
614 15-01-2011 02:40:04 7.6 C 6.36 g/m*3 7.6 C 0 km/h
615 15-01-2011 02:52:04 7.8 C 6.61 g/m*3 7.8 C 0 km/h
616 15-01-2011 03:04:04 8 C 6.45 g/m*3 8 C 0 km/h
617 15-01-2011 03:16:04 8.1 C 6.41 g/m*3 8.1 C 0 km/h
618 15-01-2011 03:28:04 8.4 C 6.62 g/m*3 8.4 C 0 km/h
619 15-01-2011 03:40:04 8.1 C 6.41 g/m*3 8.1 C 0 km/h
620 15-01-2011 03:52:04 8 C 6.45 g/m*3 8 C 0 km/h
621 15-01-2011 04:04:04 7.8 C 6.45 g/m*3 7.8 C 0 km/h
622 15-01-2011 04:16:04 8 C 6.53 g/m*3 8 C 0 km/h
623 15-01-2011 04:28:04 8.2 C 6.36 g/m*3 8.2 C 0 km/h
624 15-01-2011 04:40:04 8.7 C 6.4 g/m*3 8.7 C 0 km/h
625 15-01-2011 04:52:04 8.4 C 6.28 g/m*3 8.4 C 0 km/h
Sensor: Nr:Datum:Temp:Abs-Feuchte:Windchill:Wind:
Aussen-T/F 626 15-01-2011 05:04:04 8.3 C 6.15 g/m*3 8.3 C 0 km/h
627 15-01-2011 05:16:04 8.1 C 6.07 g/m*3 8.1 C 0 km/h
628 15-01-2011 05:28:04 7.7 C 6.24 g/m*3 7.7 C 0 km/h
629 15-01-2011 05:40:04 8 C 6.12 g/m*3 8 C 0 km/h
630 15-01-2011 05:52:04 7.7 C 6.08 g/m*3 7.7 C 0 km/h
631 15-01-2011 06:04:05 7.5 C 6.24 g/m*3 7.5 C 0 km/h
632 15-01-2011 06:16:05 6.9 C 6.24 g/m*3 6.9 C 0 km/h
633 15-01-2011 06:28:05 7.3 C 6.24 g/m*3 7.3 C 0 km/h
634 15-01-2011 06:40:05 7.6 C 6.2 g/m*3 7.6 C 0 km/h
635 15-01-2011 06:52:05 7.9 C 6.16 g/m*3 7.9 C 0 km/h
636 15-01-2011 07:04:05 7.1 C 6.01 g/m*3 7.1 C 0 km/h
637 15-01-2011 07:16:05 7.3 C 6.24 g/m*3 7.3 C 0 km/h
638 15-01-2011 07:28:05 7 C 6.2 g/m*3 7 C 0 km/h
639 15-01-2011 07:40:05 7 C 6.12 g/m*3 7 C 0 km/h
640 15-01-2011 07:52:05 7 C 6.12 g/m*3 7 C 0 km/h
641 15-01-2011 08:04:02 7 C 6.12 g/m*3 7 C 0 km/h
642 15-01-2011 08:16:03 7.1 C 6.08 g/m*3 7.1 C 0 km/h
643 15-01-2011 08:28:03 8 C 6.28 g/m*3 8 C 0 km/h
644 15-01-2011 08:40:02 8 C 6.04 g/m*3 8 C 0 km/h
645 15-01-2011 08:52:03 8.3 C 6.15 g/m*3 8.3 C 0 km/h
646 15-01-2011 09:04:02 8.2 C 5.95 g/m*3 8.2 C 0 km/h
647 15-01-2011 09:16:02 7.9 C 5.91 g/m*3 7.9 C 0 km/h
648 15-01-2011 09:28:02 8.2 C 6.03 g/m*3 8.2 C 0 km/h
649 15-01-2011 09:40:02 8.5 C 5.98 g/m*3 8.5 C 0 km/h
650 15-01-2011 09:52:02 8.7 C 6.05 g/m*3 8.7 C 0 km/h
Sensor: Nr:Datum:Temp:Abs-Feuchte:Windchill:Wind:
Aussen-T/F 651 15-01-2011 10:04:01 9.1 C 5.94 g/m*3 9.1 C 0 km/h
652 15-01-2011 10:16:02 8.9 C 5.96 g/m*3 8.9 C 0 km/h
653 15-01-2011 10:28:02 9 C 5.91 g/m*3 9 C 0 km/h
654 15-01-2011 10:40:02 9.1 C 5.86 g/m*3 9.1 C 0 km/h
655 15-01-2011 10:52:02 9.2 C 5.89 g/m*3 9.2 C 0 km/h
656 15-01-2011 11:04:02 9.4 C 5.97 g/m*3 9.4 C 0 km/h
657 15-01-2011 11:16:02 9.5 C 6.01 g/m*3 9.5 C 0 km/h
658 15-01-2011 11:28:02 10.1 C 5.96 g/m*3 10.1 C 0 km/h
659 15-01-2011 11:40:02 10.1 C 5.77 g/m*3 10.1 C 0 km/h
660 15-01-2011 11:52:02 10.2 C 5.71 g/m*3 10.2 C 0 km/h
661 15-01-2011 12:04:02 10.2 C 5.8 g/m*3 10.2 C 0 km/h
662 15-01-2011 12:16:03 10.2 C 5.71 g/m*3 10.2 C 0 km/h
663 15-01-2011 12:28:03 10.3 C 5.75 g/m*3 10.3 C 0 km/h
664 15-01-2011 12:40:02 10.2 C 5.71 g/m*3 10.2 C 0 km/h
665 15-01-2011 12:52:01 10.1 C 5.67 g/m*3 10.1 C 0 km/h
666 15-01-2011 13:04:01 10.1 C 5.58 g/m*3 10.1 C 0 km/h
667 15-01-2011 13:16:02 10 C 5.64 g/m*3 10 C 0 km/h
668 15-01-2011 13:28:02 10 C 5.54 g/m*3 10 C 0 km/h
669 15-01-2011 13:40:01 10 C 5.54 g/m*3 10 C 0 km/h
670 15-01-2011 13:52:01 10.1 C 5.58 g/m*3 10.1 C 0 km/h
671 15-01-2011 14:04:01 10.2 C 5.61 g/m*3 10.2 C 0 km/h
672 15-01-2011 14:16:02 10 C 5.54 g/m*3 10 C 0 km/h
673 15-01-2011 14:28:02 10 C 5.54 g/m*3 10 C 0 km/h
674 15-01-2011 14:40:01 10 C 5.54 g/m*3 10 C 0 km/h
675 15-01-2011 14:52:01 10 C 5.45 g/m*3 10 C 0 km/h
Sensor: Nr:Datum:Temp:Abs-Feuchte:Windchill:Wind:
Aussen-T/F 676 15-01-2011 15:04:01 9.9 C 5.42 g/m*3 9.9 C 0 km/h
677 15-01-2011 15:16:02 9.8 C 5.57 g/m*3 9.8 C 0 km/h
678 15-01-2011 15:28:02 9.6 C 5.5 g/m*3 9.6 C 0 km/h
679 15-01-2011 15:40:01 9.7 C 5.53 g/m*3 9.7 C 0 km/h
680 15-01-2011 15:52:02 9.1 C 5.59 g/m*3 9.1 C 0 km/h
681 15-01-2011 16:04:02 8.8 C 5.83 g/m*3 8.8 C 0 km/h
682 15-01-2011 16:16:03 8.7 C 5.71 g/m*3 8.7 C 0 km/h
683 15-01-2011 16:28:03 8.9 C 5.69 g/m*3 8.9 C 0 km/h
684 15-01-2011 16:40:02 8.9 C 5.69 g/m*3 8.9 C 0 km/h
685 15-01-2011 16:52:02 9.2 C 5.63 g/m*3 9.2 C 0 km/h
686 15-01-2011 17:04:01 8.7 C 5.79 g/m*3 8.7 C 0 km/h
687 15-01-2011 17:16:01 9.1 C 5.59 g/m*3 9.1 C 0 km/h
688 15-01-2011 17:28:01 9.2 C 5.54 g/m*3 9.2 C 0 km/h
689 15-01-2011 17:40:02 9 C 5.64 g/m*3 9 C 0 km/h
690 15-01-2011 17:52:03 9.1 C 5.68 g/m*3 9.1 C 0 km/h
691 15-01-2011 18:04:03 9.2 C 5.71 g/m*3 9.2 C 0 km/h
692 15-01-2011 18:16:01 9.1 C 5.68 g/m*3 9.1 C 0 km/h
693 15-01-2011 18:28:01 9 C 5.82 g/m*3 9 C 0 km/h
694 15-01-2011 18:40:02 9 C 5.82 g/m*3 9 C 0 km/h
695 15-01-2011 18:52:02 8.6 C 5.84 g/m*3 8.6 C 0 km/h
696 15-01-2011 19:04:02 9.1 C 5.77 g/m*3 9.1 C 0 km/h
697 15-01-2011 19:16:02 9.3 C 5.66 g/m*3 9.3 C 0 km/h
698 15-01-2011 19:28:02 9.1 C 5.59 g/m*3 9.1 C 0 km/h
699 15-01-2011 19:40:02 9.3 C 5.75 g/m*3 9.3 C 0 km/h
700 15-01-2011 19:52:01 9.1 C 5.68 g/m*3 9.1 C 0 km/h
Sensor: Nr:Datum:Temp:Abs-Feuchte:Windchill:Wind:
Aussen-T/F 701 15-01-2011 20:04:01 9.4 C 5.7 g/m*3 9.4 C 0 km/h
702 15-01-2011 20:16:02 9.1 C 5.59 g/m*3 9.1 C 0 km/h
703 15-01-2011 20:28:02 8.6 C 5.67 g/m*3 8.6 C 0 km/h
704 15-01-2011 20:40:01 8.9 C 5.69 g/m*3 8.9 C 0 km/h
705 15-01-2011 20:52:01 8.6 C 5.76 g/m*3 8.6 C 0 km/h
706 15-01-2011 21:04:01 8.2 C 5.53 g/m*3 8.2 C 0 km/h
707 15-01-2011 21:16:02 8.1 C 5.57 g/m*3 8.1 C 0 km/h
708 15-01-2011 21:28:02 8 C 5.54 g/m*3 8 C 0 km/h
709 15-01-2011 21:40:01 7.8 C 5.71 g/m*3 7.8 C 0 km/h
710 15-01-2011 21:52:01 8.1 C 5.74 g/m*3 8.1 C 0 km/h
711 15-01-2011 22:04:01 8.3 C 5.82 g/m*3 8.3 C 0 km/h
712 15-01-2011 22:16:02 8.5 C 5.98 g/m*3 8.5 C 0 km/h
713 15-01-2011 22:28:02 8.9 C 5.96 g/m*3 8.9 C 0 km/h
714 15-01-2011 22:41:03 8.6 C 5.84 g/m*3 8.6 C 0 km/h
715 15-01-2011 22:53:03 8.7 C 5.88 g/m*3 8.7 C 0 km/h
716 15-01-2011 23:05:03 8.5 C 5.89 g/m*3 8.5 C 0 km/h
717 15-01-2011 23:17:03 8.2 C 5.86 g/m*3 8.2 C 0 km/h
718 15-01-2011 23:29:03 8.7 C 5.88 g/m*3 8.7 C 0 km/h
719 15-01-2011 23:41:03 8.8 C 5.92 g/m*3 8.8 C 0 km/h
720 15-01-2011 23:53:03 8.9 C 5.87 g/m*3 8.9 C 0 km/h
721 16-01-2011 00:05:03 8.7 C 5.97 g/m*3 8.7 C 0 km/h
722 16-01-2011 00:17:03 8.8 C 5.92 g/m*3 8.8 C 0 km/h
723 16-01-2011 00:29:03 9 C 5.82 g/m*3 9 C 0 km/h
724 16-01-2011 00:41:03 9 C 5.73 g/m*3 9 C 0 km/h
725 16-01-2011 00:53:04 9 C 5.73 g/m*3 9 C 0 km/h
Sensor: Nr:Datum:Temp:Abs-Feuchte:Windchill:Wind:
Aussen-T/F 726 16-01-2011 01:05:04 8.5 C 5.64 g/m*3 8.5 C 0 km/h
727 16-01-2011 01:17:04 8.6 C 5.76 g/m*3 8.6 C 0 km/h
728 16-01-2011 01:29:04 8 C 5.7 g/m*3 8 C 0 km/h
729 16-01-2011 01:41:04 8 C 5.7 g/m*3 8 C 0 km/h
730 16-01-2011 01:53:04 8.1 C 5.66 g/m*3 8.1 C 0 km/h
731 16-01-2011 02:05:04 8.1 C 5.66 g/m*3 8.1 C 0 km/h
732 16-01-2011 02:17:04 7.8 C 5.71 g/m*3 7.8 C 0 km/h
733 16-01-2011 02:29:04 7.8 C 5.79 g/m*3 7.8 C 0 km/h
734 16-01-2011 02:41:04 7.8 C 5.88 g/m*3 7.8 C 0 km/h
735 16-01-2011 02:53:04 8.3 C 5.82 g/m*3 8.3 C 0 km/h
736 16-01-2011 03:05:04 8.4 C 5.77 g/m*3 8.4 C 0 km/h
737 16-01-2011 03:17:04 8.3 C 5.65 g/m*3 8.3 C 0 km/h
738 16-01-2011 03:29:04 8.2 C 5.69 g/m*3 8.2 C 0 km/h
739 16-01-2011 03:41:04 7.8 C 5.71 g/m*3 7.8 C 0 km/h
740 16-01-2011 03:53:04 8 C 5.7 g/m*3 8 C 0 km/h
741 16-01-2011 04:05:04 7.9 C 5.75 g/m*3 7.9 C 0 km/h
742 16-01-2011 04:17:04 8.2 C 5.78 g/m*3 8.2 C 0 km/h
743 16-01-2011 04:29:04 8.5 C 5.72 g/m*3 8.5 C 0 km/h
744 16-01-2011 04:41:04 8.4 C 5.77 g/m*3 8.4 C 0 km/h
745 16-01-2011 04:53:05 8.1 C 5.74 g/m*3 8.1 C 0 km/h
746 16-01-2011 05:05:05 7.9 C 5.83 g/m*3 7.9 C 0 km/h
747 16-01-2011 05:17:05 7.3 C 5.85 g/m*3 7.3 C 0 km/h
748 16-01-2011 05:29:05 6.8 C 5.97 g/m*3 6.8 C 0 km/h
749 16-01-2011 05:41:05 7 C 6.12 g/m*3 7 C 0 km/h
750 16-01-2011 05:53:05 6.8 C 6.12 g/m*3 6.8 C 0 km/h
Sensor: Nr:Datum:Temp:Abs-Feuchte:Windchill:Wind:
Aussen-T/F 751 16-01-2011 06:05:05 7 C 6.2 g/m*3 7 C 0 km/h
752 16-01-2011 06:17:05 7.1 C 6.16 g/m*3 7.1 C 0 km/h
753 16-01-2011 06:29:05 7.5 C 6.16 g/m*3 7.5 C 0 km/h
754 16-01-2011 06:41:05 7 C 5.89 g/m*3 7 C 0 km/h
755 16-01-2011 06:53:05 6.7 C 6 g/m*3 6.7 C 0 km/h
756 16-01-2011 07:05:05 7.5 C 6.16 g/m*3 7.5 C 0 km/h
757 16-01-2011 07:17:05 7.8 C 6.12 g/m*3 7.8 C 0 km/h
758 16-01-2011 07:29:05 7.9 C 6.08 g/m*3 7.9 C 0 km/h
759 16-01-2011 07:41:05 7.8 C 6.04 g/m*3 7.8 C 0 km/h
760 16-01-2011 07:53:05 8.4 C 5.94 g/m*3 8.4 C 0 km/h
761 16-01-2011 08:05:05 8.2 C 5.86 g/m*3 8.2 C 0 km/h
762 16-01-2011 08:17:05 8.3 C 5.9 g/m*3 8.3 C 0 km/h
763 16-01-2011 08:29:05 8.3 C 5.82 g/m*3 8.3 C 0 km/h
764 16-01-2011 08:41:05 8.1 C 5.82 g/m*3 8.1 C 0 km/h
765 16-01-2011 08:53:05 8.2 C 5.95 g/m*3 8.2 C 0 km/h
766 16-01-2011 09:05:02 8.3 C 5.98 g/m*3 8.3 C 0 km/h
767 16-01-2011 09:17:02 8 C 5.87 g/m*3 8 C 0 km/h
768 16-01-2011 09:29:02 8 C 5.87 g/m*3 8 C 0 km/h
769 16-01-2011 09:41:02 8 C 5.87 g/m*3 8 C 0 km/h
770 16-01-2011 09:53:01 7.9 C 5.91 g/m*3 7.9 C 0 km/h
771 16-01-2011 10:05:02 7.9 C 5.91 g/m*3 7.9 C 0 km/h
772 16-01-2011 10:17:01 7.9 C 5.91 g/m*3 7.9 C 0 km/h
773 16-01-2011 10:29:01 7.9 C 5.91 g/m*3 7.9 C 0 km/h
774 16-01-2011 10:41:01 8 C 5.95 g/m*3 8 C 0 km/h
775 16-01-2011 10:53:01 8.2 C 5.86 g/m*3 8.2 C 0 km/h
Sensor: Nr:Datum:Temp:Abs-Feuchte:Windchill:Wind:
Aussen-T/F 776 16-01-2011 11:05:02 8.1 C 5.91 g/m*3 8.1 C 0 km/h
777 16-01-2011 11:17:01 8.1 C 5.91 g/m*3 8.1 C 0 km/h
778 16-01-2011 11:29:01 8.3 C 5.98 g/m*3 8.3 C 0 km/h
779 16-01-2011 11:41:02 8.6 C 6.1 g/m*3 8.6 C 0 km/h
780 16-01-2011 11:53:01 8.7 C 6.05 g/m*3 8.7 C 0 km/h
781 16-01-2011 12:05:02 8.6 C 6.1 g/m*3 8.6 C 0 km/h
782 16-01-2011 12:17:01 8.6 C 6.19 g/m*3 8.6 C 0 km/h
783 16-01-2011 12:29:01 8.6 C 6.19 g/m*3 8.6 C 0 km/h
784 16-01-2011 12:41:02 8.7 C 6.14 g/m*3 8.7 C 0 km/h
785 16-01-2011 12:53:01 8.7 C 6.14 g/m*3 8.7 C 0 km/h
786 16-01-2011 13:05:02 8.9 C 6.22 g/m*3 8.9 C 0 km/h
787 16-01-2011 13:17:02 8.9 C 6.22 g/m*3 8.9 C 0 km/h
788 16-01-2011 13:29:02 8.8 C 6.18 g/m*3 8.8 C 0 km/h
789 16-01-2011 13:41:01 8.7 C 6.14 g/m*3 8.7 C 0 km/h
790 16-01-2011 13:53:02 8.8 C 6.18 g/m*3 8.8 C 0 km/h
791 16-01-2011 14:05:01 8.6 C 6.1 g/m*3 8.6 C 0 km/h
792 16-01-2011 14:17:02 7.8 C 6.04 g/m*3 7.8 C 0 km/h
793 16-01-2011 14:29:02 7.5 C 6.24 g/m*3 7.5 C 0 km/h
794 16-01-2011 14:41:01 8.7 C 6.57 g/m*3 8.7 C 0 km/h
795 16-01-2011 14:53:02 9.7 C 6.36 g/m*3 9.7 C 0 km/h
796 16-01-2011 15:05:01 9.9 C 6.26 g/m*3 9.9 C 0 km/h
797 16-01-2011 15:17:02 10 C 6.11 g/m*3 10 C 0 km/h
798 16-01-2011 15:29:02 10 C 6.11 g/m*3 10 C 0 km/h
799 16-01-2011 15:41:01 9.9 C 6.26 g/m*3 9.9 C 0 km/h
800 16-01-2011 15:53:02 9.8 C 6.4 g/m*3 9.8 C 0 km/h
Sensor: Nr:Datum:Temp:Abs-Feuchte:Windchill:Wind:
Aussen-T/F 801 16-01-2011 16:05:02 9.3 C 6.38 g/m*3 9.3 C 0 km/h
802 16-01-2011 16:17:02 8.7 C 6.4 g/m*3 8.7 C 0 km/h
803 16-01-2011 16:29:02 8 C 6.28 g/m*3 8 C 0 km/h
804 16-01-2011 16:41:02 7.4 C 6.36 g/m*3 7.4 C 0 km/h
805 16-01-2011 16:53:02 6.8 C 6.27 g/m*3 6.8 C 0 km/h
806 16-01-2011 17:05:01 6.3 C 6.14 g/m*3 6.3 C 0 km/h
807 16-01-2011 17:17:02 6.2 C 6.18 g/m*3 6.2 C 0 km/h
808 16-01-2011 17:29:02 6 C 6.17 g/m*3 6 C 0 km/h
809 16-01-2011 17:41:02 5.6 C 6.08 g/m*3 5.6 C 0 km/h
810 16-01-2011 17:53:02 5.5 C 6.11 g/m*3 5.5 C 0 km/h
811 16-01-2011 18:05:03 5.1 C 5.95 g/m*3 5.1 C 0 km/h
812 16-01-2011 18:17:02 5 C 5.91 g/m*3 5 C 0 km/h
813 16-01-2011 18:29:02 4.8 C 5.9 g/m*3 4.8 C 0 km/h
814 16-01-2011 18:41:02 4.7 C 5.93 g/m*3 4.7 C 0 km/h
815 16-01-2011 18:53:02 4.6 C 5.89 g/m*3 4.6 C 0 km/h
816 16-01-2011 19:05:01 4.5 C 5.85 g/m*3 4.5 C 0 km/h
817 16-01-2011 19:17:02 4.4 C 5.81 g/m*3 4.4 C 0 km/h
818 16-01-2011 19:29:03 4.4 C 5.81 g/m*3 4.4 C 0 km/h
819 16-01-2011 19:41:01 3.9 C 5.68 g/m*3 3.9 C 0 km/h
820 16-01-2011 19:53:02 3.9 C 5.68 g/m*3 3.9 C 0 km/h
821 16-01-2011 20:05:02 3.4 C 5.5 g/m*3 3.4 C 0 km/h
822 16-01-2011 20:17:02 3.7 C 5.61 g/m*3 3.7 C 0 km/h
823 16-01-2011 20:29:02 3.5 C 5.53 g/m*3 3.5 C 0 km/h
824 16-01-2011 20:41:03 2.9 C 5.37 g/m*3 2.9 C 0 km/h
825 16-01-2011 20:53:02 2.8 C 5.34 g/m*3 2.8 C 0 km/h
Sensor: Nr:Datum:Temp:Abs-Feuchte:Windchill:Wind:
Aussen-T/F 826 16-01-2011 21:05:01 2.7 C 5.3 g/m*3 2.7 C 0 km/h
827 16-01-2011 21:17:02 2.2 C 5.13 g/m*3 2.2 C 0 km/h
828 16-01-2011 21:29:02 2.7 C 5.3 g/m*3 2.7 C 0 km/h
829 16-01-2011 21:41:02 2.2 C 5.13 g/m*3 2.2 C 0 km/h
830 16-01-2011 21:53:02 2.2 C 5.13 g/m*3 2.2 C 0 km/h
831 16-01-2011 22:06:04 1.8 C 5.04 g/m*3 1.8 C 0 km/h
832 16-01-2011 22:18:04 2.8 C 5.4 g/m*3 2.8 C 0 km/h
833 16-01-2011 22:30:04 1.9 C 5.08 g/m*3 1.9 C 0 km/h
834 16-01-2011 22:42:04 2.1 C 5.09 g/m*3 2.1 C 0 km/h
835 16-01-2011 22:54:04 2.2 C 5.18 g/m*3 2.2 C 0 km/h
836 16-01-2011 23:06:04 2.1 C 5.15 g/m*3 2.1 C 0 km/h
837 16-01-2011 23:18:04 1.5 C 4.94 g/m*3 1.5 C 0 km/h
838 16-01-2011 23:30:04 1.5 C 4.94 g/m*3 1.5 C 0 km/h
839 16-01-2011 23:42:04 1.1 C 4.81 g/m*3 1.1 C 0 km/h
840 16-01-2011 23:54:04 0.6 C 4.65 g/m*3 0.6 C 0 km/h
841 17-01-2011 00:06:04 1.2 C 4.84 g/m*3 1.2 C 0 km/h
842 17-01-2011 00:18:04 1.6 C 5.03 g/m*3 1.6 C 0 km/h
843 17-01-2011 00:30:04 1.4 C 4.91 g/m*3 1.4 C 0 km/h
844 17-01-2011 00:42:04 1.4 C 4.91 g/m*3 1.4 C 0 km/h
845 17-01-2011 00:54:04 1.4 C 4.96 g/m*3 1.4 C 0 km/h
846 17-01-2011 01:06:04 0.9 C 4.79 g/m*3 0.9 C 0 km/h
847 17-01-2011 01:18:04 1.2 C 4.89 g/m*3 1.2 C 0 km/h
848 17-01-2011 01:30:04 1.5 C 4.99 g/m*3 1.5 C 0 km/h
849 17-01-2011 01:42:04 1.3 C 4.93 g/m*3 1.3 C 0 km/h
850 17-01-2011 01:54:04 1 C 4.78 g/m*3 1 C 0 km/h
Sensor: Nr:Datum:Temp:Abs-Feuchte:Windchill:Wind:
Aussen-T/F 851 17-01-2011 02:06:04 0.7 C 4.73 g/m*3 0.7 C 0 km/h
852 17-01-2011 02:18:05 1.5 C 4.99 g/m*3 1.5 C 0 km/h
853 17-01-2011 02:30:05 1.3 C 4.93 g/m*3 1.3 C 0 km/h
854 17-01-2011 02:42:05 1 C 4.83 g/m*3 1 C 0 km/h
855 17-01-2011 02:54:05 1.1 C 4.86 g/m*3 1.1 C 0 km/h
856 17-01-2011 03:06:05 1.4 C 4.96 g/m*3 1.4 C 0 km/h
857 17-01-2011 03:18:05 1.5 C 4.99 g/m*3 1.5 C 0 km/h
858 17-01-2011 03:30:05 0.9 C 4.85 g/m*3 0.9 C 0 km/h
859 17-01-2011 03:42:05 0.9 C 4.85 g/m*3 0.9 C 0 km/h
860 17-01-2011 03:54:05 0.5 C 4.71 g/m*3 0.5 C 0 km/h
861 17-01-2011 04:06:05 0.2 C 4.57 g/m*3 0.2 C 0 km/h
862 17-01-2011 04:18:05 -0.1 C 4.47 g/m*3 -0.1 C 0 km/h
863 17-01-2011 04:30:05 -0.3 C 4.41 g/m*3 -0.3 C 0 km/h
864 17-01-2011 04:42:05 0.1 C 4.54 g/m*3 0.1 C 0 km/h
865 17-01-2011 04:54:05 -0.1 C 4.47 g/m*3 -0.1 C 0 km/h
866 17-01-2011 05:06:05 0.6 C 4.75 g/m*3 0.6 C 0 km/h
867 17-01-2011 05:18:05 0.5 C 4.71 g/m*3 0.5 C 0 km/h
868 17-01-2011 05:30:05 -0.2 C 4.44 g/m*3 -0.2 C 0 km/h
869 17-01-2011 05:42:05 -0.5 C 4.35 g/m*3 -0.5 C 0 km/h
870 17-01-2011 05:54:05 0 C 4.51 g/m*3 0 C 0 km/h
871 17-01-2011 06:06:05 -0.3 C 4.41 g/m*3 -0.3 C 0 km/h
872 17-01-2011 06:18:06 -0.3 C 4.41 g/m*3 -0.3 C 0 km/h
873 17-01-2011 06:30:06 -0.6 C 4.32 g/m*3 -0.6 C 0 km/h
874 17-01-2011 06:42:06 -1 C 4.2 g/m*3 -1 C 0 km/h
875 17-01-2011 06:54:03 -0.9 C 4.23 g/m*3 -0.9 C 0 km/h
Sensor: Nr:Datum:Temp:Abs-Feuchte:Windchill:Wind:
Aussen-T/F 876 17-01-2011 07:06:02 -0.7 C 4.29 g/m*3 -0.7 C 0 km/h
877 17-01-2011 07:18:02 0.2 C 4.62 g/m*3 0.2 C 0 km/h
878 17-01-2011 07:30:02 0 C 4.55 g/m*3 0 C 0 km/h
879 17-01-2011 07:42:02 -0.5 C 4.35 g/m*3 -0.5 C 0 km/h
880 17-01-2011 07:54:02 -1 C 4.2 g/m*3 -1 C 0 km/h
881 17-01-2011 08:06:02 -1 C 4.2 g/m*3 -1 C 0 km/h
882 17-01-2011 08:18:02 -1 C 4.2 g/m*3 -1 C 0 km/h
883 17-01-2011 08:30:02 -1.1 C 4.17 g/m*3 -1.1 C 0 km/h
884 17-01-2011 08:42:03 -0.2 C 4.49 g/m*3 -0.2 C 0 km/h
885 17-01-2011 08:54:01 0 C 4.55 g/m*3 0 C 0 km/h
886 17-01-2011 09:06:02 0.4 C 4.68 g/m*3 0.4 C 0 km/h
887 17-01-2011 09:18:01 0.7 C 4.78 g/m*3 0.7 C 0 km/h
888 17-01-2011 09:30:01 0.8 C 4.81 g/m*3 0.8 C 0 km/h
889 17-01-2011 09:42:02 0.9 C 4.85 g/m*3 0.9 C 0 km/h
890 17-01-2011 09:54:01 0.8 C 4.81 g/m*3 0.8 C 0 km/h
891 17-01-2011 10:06:02 0.7 C 4.78 g/m*3 0.7 C 0 km/h
892 17-01-2011 10:18:02 0.7 C 4.78 g/m*3 0.7 C 0 km/h
893 17-01-2011 10:30:02 0.4 C 4.68 g/m*3 0.4 C 0 km/h
894 17-01-2011 10:42:01 0.6 C 4.75 g/m*3 0.6 C 0 km/h
895 17-01-2011 10:54:02 1 C 4.88 g/m*3 1 C 0 km/h
896 17-01-2011 11:06:01 1 C 4.88 g/m*3 1 C 0 km/h
897 17-01-2011 11:18:02 1 C 4.88 g/m*3 1 C 0 km/h
898 17-01-2011 11:30:02 1.7 C 5.12 g/m*3 1.7 C 0 km/h
899 17-01-2011 11:42:01 2.9 C 5.55 g/m*3 2.9 C 0 km/h
900 17-01-2011 11:54:02 4.1 C 5.95 g/m*3 4.1 C 0 km/h
Sensor: Nr:Datum:Temp:Abs-Feuchte:Windchill:Wind:
Aussen-T/F 901 17-01-2011 12:06:02 5 C 6.32 g/m*3 5 C 0 km/h
902 17-01-2011 12:18:02 4.9 C 6.35 g/m*3 4.9 C 0 km/h
903 17-01-2011 12:30:02 5.4 C 6.49 g/m*3 5.4 C 0 km/h
904 17-01-2011 12:42:03 5.8 C 6.66 g/m*3 5.8 C 0 km/h
905 17-01-2011 12:54:02 6 C 6.68 g/m*3 6 C 0 km/h
906 17-01-2011 13:06:02 6.3 C 6.81 g/m*3 6.3 C 0 km/h
907 17-01-2011 13:18:01 6.3 C 6.74 g/m*3 6.3 C 0 km/h
908 17-01-2011 13:30:01 6 C 6.46 g/m*3 6 C 0 km/h
909 17-01-2011 13:42:02 5.8 C 6.38 g/m*3 5.8 C 0 km/h
910 17-01-2011 13:54:02 5.9 C 6.35 g/m*3 5.9 C 0 km/h
911 17-01-2011 14:06:02 6 C 6.17 g/m*3 6 C 0 km/h
912 17-01-2011 14:18:02 6.3 C 6.22 g/m*3 6.3 C 0 km/h
913 17-01-2011 14:30:02 6.5 C 6.15 g/m*3 6.5 C 0 km/h
914 17-01-2011 14:42:02 6.6 C 5.96 g/m*3 6.6 C 0 km/h
915 17-01-2011 14:54:02 6.6 C 5.89 g/m*3 6.6 C 0 km/h
916 17-01-2011 15:06:02 6.7 C 5.85 g/m*3 6.7 C 0 km/h
917 17-01-2011 15:18:02 6.5 C 5.92 g/m*3 6.5 C 0 km/h
918 17-01-2011 15:30:02 6.2 C 5.88 g/m*3 6.2 C 0 km/h
919 17-01-2011 15:42:02 5.8 C 5.87 g/m*3 5.8 C 0 km/h
920 17-01-2011 15:54:02 5.7 C 5.98 g/m*3 5.7 C 0 km/h
921 17-01-2011 16:06:03 6.2 C 6.1 g/m*3 6.2 C 0 km/h
922 17-01-2011 16:18:02 5.6 C 5.94 g/m*3 5.6 C 0 km/h
923 17-01-2011 16:30:02 6.1 C 6.06 g/m*3 6.1 C 0 km/h
924 17-01-2011 16:42:02 6.3 C 5.85 g/m*3 6.3 C 0 km/h
925 17-01-2011 16:54:01 6.7 C 5.85 g/m*3 6.7 C 0 km/h
Sensor: Nr:Datum:Temp:Abs-Feuchte:Windchill:Wind:
Aussen-T/F 926 17-01-2011 17:06:02 6.4 C 5.74 g/m*3 6.4 C 0 km/h
927 17-01-2011 17:18:01 6.1 C 5.77 g/m*3 6.1 C 0 km/h
928 17-01-2011 17:30:01 6.3 C 5.85 g/m*3 6.3 C 0 km/h
929 17-01-2011 17:42:01 6.2 C 5.88 g/m*3 6.2 C 0 km/h
930 17-01-2011 17:54:01 6 C 5.88 g/m*3 6 C 0 km/h
931 17-01-2011 18:06:02 5.9 C 5.98 g/m*3 5.9 C 0 km/h
932 17-01-2011 18:18:02 6 C 6.02 g/m*3 6 C 0 km/h
933 17-01-2011 18:30:02 6 C 6.02 g/m*3 6 C 0 km/h
934 17-01-2011 18:42:01 6 C 6.1 g/m*3 6 C 0 km/h
935 17-01-2011 18:54:01 6 C 6.1 g/m*3 6 C 0 km/h
936 17-01-2011 19:06:01 6 C 6.1 g/m*3 6 C 0 km/h
937 17-01-2011 19:18:02 6.2 C 6.1 g/m*3 6.2 C 0 km/h
938 17-01-2011 19:30:02 6.3 C 6.07 g/m*3 6.3 C 0 km/h
939 17-01-2011 19:42:02 6.3 C 6.07 g/m*3 6.3 C 0 km/h
940 17-01-2011 19:54:03 6.3 C 6.14 g/m*3 6.3 C 0 km/h
941 17-01-2011 20:06:03 6.5 C 6.15 g/m*3 6.5 C 0 km/h
942 17-01-2011 20:18:02 6.7 C 6.15 g/m*3 6.7 C 0 km/h
943 17-01-2011 20:30:02 6.8 C 6.19 g/m*3 6.8 C 0 km/h
944 17-01-2011 20:42:02 7.3 C 6.24 g/m*3 7.3 C 0 km/h
945 17-01-2011 20:54:02 7.4 C 6.2 g/m*3 7.4 C 0 km/h
946 17-01-2011 21:06:02 7.5 C 6.24 g/m*3 7.5 C 0 km/h
947 17-01-2011 21:18:03 7.9 C 6.32 g/m*3 7.9 C 0 km/h
948 17-01-2011 21:30:03 8.2 C 6.2 g/m*3 8.2 C 0 km/h
949 17-01-2011 21:42:02 8.2 C 6.2 g/m*3 8.2 C 0 km/h
950 17-01-2011 21:54:02 8.4 C 6.19 g/m*3 8.4 C 0 km/h
Sensor: Nr:Datum:Temp:Abs-Feuchte:Windchill:Wind:
Aussen-T/F 951 17-01-2011 22:06:02 8.2 C 6.11 g/m*3 8.2 C 0 km/h
952 17-01-2011 22:19:04 8.4 C 6.11 g/m*3 8.4 C 0 km/h
953 17-01-2011 22:31:04 8.2 C 6.11 g/m*3 8.2 C 0 km/h
954 17-01-2011 22:43:04 8.2 C 6.11 g/m*3 8.2 C 0 km/h
955 17-01-2011 22:55:04 8.4 C 6.19 g/m*3 8.4 C 0 km/h
956 17-01-2011 23:07:04 8.4 C 6.19 g/m*3 8.4 C 0 km/h
957 17-01-2011 23:19:04 8.6 C 6.27 g/m*3 8.6 C 0 km/h
958 17-01-2011 23:31:04 8.6 C 6.19 g/m*3 8.6 C 0 km/h
959 17-01-2011 23:43:04 8.5 C 6.23 g/m*3 8.5 C 0 km/h
960 17-01-2011 23:55:04 8.7 C 6.31 g/m*3 8.7 C 0 km/h
961 18-01-2011 00:07:04 8.5 C 6.23 g/m*3 8.5 C 0 km/h
962 18-01-2011 00:19:04 8.3 C 6.15 g/m*3 8.3 C 0 km/h
963 18-01-2011 00:31:04 7.5 C 6 g/m*3 7.5 C 0 km/h
964 18-01-2011 00:43:04 6.9 C 6.08 g/m*3 6.9 C 0 km/h
965 18-01-2011 00:55:04 7 C 6.2 g/m*3 7 C 0 km/h
966 18-01-2011 01:07:04 7.4 C 6.36 g/m*3 7.4 C 0 km/h
967 18-01-2011 01:19:04 7.3 C 6.24 g/m*3 7.3 C 0 km/h
968 18-01-2011 01:31:05 7.3 C 6.24 g/m*3 7.3 C 0 km/h
969 18-01-2011 01:43:05 6.6 C 6.04 g/m*3 6.6 C 0 km/h
970 18-01-2011 01:55:05 5.6 C 5.8 g/m*3 5.6 C 0 km/h
971 18-01-2011 02:07:05 5.3 C 5.82 g/m*3 5.3 C 0 km/h
972 18-01-2011 02:19:05 5.1 C 5.81 g/m*3 5.1 C 0 km/h
973 18-01-2011 02:31:05 5 C 5.84 g/m*3 5 C 0 km/h
974 18-01-2011 02:43:05 5.3 C 6.03 g/m*3 5.3 C 0 km/h
975 18-01-2011 02:55:05 5.5 C 6.18 g/m*3 5.5 C 0 km/h
Sensor: Nr:Datum:Temp:Abs-Feuchte:Windchill:Wind:
Aussen-T/F 976 18-01-2011 03:07:05 7 C 6.35 g/m*3 7 C 0 km/h
977 18-01-2011 03:19:05 6.6 C 6.04 g/m*3 6.6 C 0 km/h
978 18-01-2011 03:31:05 7.1 C 6.08 g/m*3 7.1 C 0 km/h
979 18-01-2011 03:43:05 7.6 C 6.12 g/m*3 7.6 C 0 km/h
980 18-01-2011 03:55:05 7.2 C 5.89 g/m*3 7.2 C 0 km/h
981 18-01-2011 04:07:05 6.7 C 5.93 g/m*3 6.7 C 0 km/h
982 18-01-2011 04:19:05 6.7 C 5.93 g/m*3 6.7 C 0 km/h
983 18-01-2011 04:31:05 7.4 C 6.04 g/m*3 7.4 C 0 km/h
984 18-01-2011 04:43:05 7.2 C 5.89 g/m*3 7.2 C 0 km/h
985 18-01-2011 04:55:05 7.3 C 6 g/m*3 7.3 C 0 km/h
986 18-01-2011 05:07:05 7.4 C 6.04 g/m*3 7.4 C 0 km/h
987 18-01-2011 05:19:05 7.6 C 6.12 g/m*3 7.6 C 0 km/h
988 18-01-2011 05:31:06 7.5 C 5.84 g/m*3 7.5 C 0 km/h
989 18-01-2011 05:43:06 8 C 5.79 g/m*3 8 C 0 km/h
990 18-01-2011 05:55:06 7.9 C 5.91 g/m*3 7.9 C 0 km/h
991 18-01-2011 06:07:06 7.5 C 5.84 g/m*3 7.5 C 0 km/h
992 18-01-2011 06:19:06 7.6 C 5.96 g/m*3 7.6 C 0 km/h
993 18-01-2011 06:31:06 6.8 C 5.89 g/m*3 6.8 C 0 km/h
994 18-01-2011 06:43:06 6.8 C 6.04 g/m*3 6.8 C 0 km/h
995 18-01-2011 06:55:06 7.6 C 6.12 g/m*3 7.6 C 0 km/h
996 18-01-2011 07:07:06 7 C 5.81 g/m*3 7 C 0 km/h
997 18-01-2011 07:19:06 6.6 C 5.96 g/m*3 6.6 C 0 km/h
998 18-01-2011 07:31:06 7.1 C 6.08 g/m*3 7.1 C 0 km/h
999 18-01-2011 07:43:06 7.3 C 6.08 g/m*3 7.3 C 0 km/h
1000 18-01-2011 07:55:02 7.7 C 6.24 g/m*3 7.7 C 0 km/h
Sensor: Nr:Datum:Temp:Abs-Feuchte:Windchill:Wind:
Aussen-T/F 1001 18-01-2011 08:07:02 7.1 C 5.93 g/m*3 7.1 C 0 km/h
1002 18-01-2011 08:19:01 7.2 C 5.97 g/m*3 7.2 C 0 km/h
1003 18-01-2011 08:31:02 7 C 5.97 g/m*3 7 C 0 km/h
1004 18-01-2011 08:43:02 7.2 C 5.97 g/m*3 7.2 C 0 km/h
1005 18-01-2011 08:55:01 8 C 6.04 g/m*3 8 C 0 km/h
1006 18-01-2011 09:07:02 8.3 C 6.07 g/m*3 8.3 C 0 km/h
1007 18-01-2011 09:19:01 8.4 C 6.02 g/m*3 8.4 C 0 km/h
1008 18-01-2011 09:31:02 8.4 C 6.02 g/m*3 8.4 C 0 km/h
1009 18-01-2011 09:43:02 8.6 C 6.02 g/m*3 8.6 C 0 km/h
1010 18-01-2011 09:55:02 8.5 C 6.06 g/m*3 8.5 C 0 km/h
1011 18-01-2011 10:07:02 8.6 C 6.1 g/m*3 8.6 C 0 km/h
1012 18-01-2011 10:19:01 8.8 C 6.09 g/m*3 8.8 C 0 km/h
1013 18-01-2011 10:31:02 9 C 5.99 g/m*3 9 C 0 km/h
1014 18-01-2011 10:43:02 8.8 C 6.18 g/m*3 8.8 C 0 km/h
1015 18-01-2011 10:55:02 9 C 6.08 g/m*3 9 C 0 km/h
1016 18-01-2011 11:07:02 9.1 C 6.03 g/m*3 9.1 C 0 km/h
1017 18-01-2011 11:19:02 9.2 C 6.07 g/m*3 9.2 C 0 km/h
1018 18-01-2011 11:31:02 9.1 C 6.03 g/m*3 9.1 C 0 km/h
1019 18-01-2011 11:43:02 8.4 C 6.02 g/m*3 8.4 C 0 km/h
1020 18-01-2011 11:55:02 7.9 C 6.08 g/m*3 7.9 C 0 km/h
1021 18-01-2011 12:07:02 8.8 C 6.27 g/m*3 8.8 C 0 km/h
1022 18-01-2011 12:19:02 9.8 C 6.22 g/m*3 9.8 C 0 km/h
1023 18-01-2011 12:31:01 10 C 5.92 g/m*3 10 C 0 km/h
1024 18-01-2011 12:43:01 9.9 C 5.98 g/m*3 9.9 C 0 km/h
1025 18-01-2011 12:55:02 10 C 5.92 g/m*3 10 C 0 km/h
Sensor: Nr:Datum:Temp:Abs-Feuchte:Windchill:Wind:
Aussen-T/F 1026 18-01-2011 13:07:01 9.8 C 6.03 g/m*3 9.8 C 0 km/h
1027 18-01-2011 13:19:01 9.9 C 5.98 g/m*3 9.9 C 0 km/h
1028 18-01-2011 13:31:02 9.8 C 5.94 g/m*3 9.8 C 0 km/h
1029 18-01-2011 13:43:02 9.6 C 6.14 g/m*3 9.6 C 0 km/h
1030 18-01-2011 13:55:02 9.4 C 6.15 g/m*3 9.4 C 0 km/h
1031 18-01-2011 14:07:02 9.8 C 6.12 g/m*3 9.8 C 0 km/h
1032 18-01-2011 14:19:02 9.6 C 5.86 g/m*3 9.6 C 0 km/h
1033 18-01-2011 14:31:02 9.6 C 5.86 g/m*3 9.6 C 0 km/h
1034 18-01-2011 14:43:02 9.7 C 5.99 g/m*3 9.7 C 0 km/h
1035 18-01-2011 14:55:02 9.9 C 5.88 g/m*3 9.9 C 0 km/h
1036 18-01-2011 15:07:03 10.2 C 5.71 g/m*3 10.2 C 0 km/h
1037 18-01-2011 15:19:02 9.5 C 5.73 g/m*3 9.5 C 0 km/h
1038 18-01-2011 15:31:02 9.1 C 5.68 g/m*3 9.1 C 0 km/h
1039 18-01-2011 15:43:02 9.2 C 5.63 g/m*3 9.2 C 0 km/h
1040 18-01-2011 15:55:01 9.1 C 5.59 g/m*3 9.1 C 0 km/h
1041 18-01-2011 16:07:02 9.1 C 5.5 g/m*3 9.1 C 0 km/h
1042 18-01-2011 16:19:01 8.8 C 5.48 g/m*3 8.8 C 0 km/h
1043 18-01-2011 16:31:01 9.1 C 5.59 g/m*3 9.1 C 0 km/h
1044 18-01-2011 16:43:01 7.8 C 5.96 g/m*3 7.8 C 0 km/h
1045 18-01-2011 16:55:01 7.1 C 6.24 g/m*3 7.1 C 0 km/h
1046 18-01-2011 17:07:01 6.6 C 6.27 g/m*3 6.6 C 0 km/h
1047 18-01-2011 17:19:02 6.5 C 6.37 g/m*3 6.5 C 0 km/h
1048 18-01-2011 17:31:01 6.5 C 6.45 g/m*3 6.5 C 0 km/h
1049 18-01-2011 17:43:01 6.6 C 6.49 g/m*3 6.6 C 0 km/h
1050 18-01-2011 17:55:03 6.5 C 6.52 g/m*3 6.5 C 0 km/h
Sensor: Nr:Datum:Temp:Abs-Feuchte:Windchill:Wind:
Aussen-T/F 1051 18-01-2011 18:07:02 6.4 C 6.48 g/m*3 6.4 C 0 km/h
1052 18-01-2011 18:19:02 6.3 C 6.37 g/m*3 6.3 C 0 km/h
1053 18-01-2011 18:31:02 6.1 C 6.21 g/m*3 6.1 C 0 km/h
1054 18-01-2011 18:43:02 6.1 C 6.21 g/m*3 6.1 C 0 km/h
1055 18-01-2011 18:55:02 5.9 C 6.27 g/m*3 5.9 C 0 km/h
1056 18-01-2011 19:07:02 5.9 C 6.27 g/m*3 5.9 C 0 km/h
1057 18-01-2011 19:19:02 5.9 C 6.27 g/m*3 5.9 C 0 km/h
1058 18-01-2011 19:31:03 5.9 C 6.27 g/m*3 5.9 C 0 km/h
1059 18-01-2011 19:43:03 5.8 C 6.23 g/m*3 5.8 C 0 km/h
1060 18-01-2011 19:55:02 5.8 C 6.23 g/m*3 5.8 C 0 km/h
1061 18-01-2011 20:07:02 5.8 C 6.23 g/m*3 5.8 C 0 km/h
1062 18-01-2011 20:19:02 5.9 C 6.13 g/m*3 5.9 C 0 km/h
1063 18-01-2011 20:31:02 5.8 C 6.02 g/m*3 5.8 C 0 km/h
1064 18-01-2011 20:43:02 5.7 C 5.98 g/m*3 5.7 C 0 km/h
1065 18-01-2011 20:55:02 5.5 C 5.83 g/m*3 5.5 C 0 km/h
1066 18-01-2011 21:07:02 5.3 C 5.75 g/m*3 5.3 C 0 km/h
1067 18-01-2011 21:19:02 5.2 C 5.65 g/m*3 5.2 C 0 km/h
1068 18-01-2011 21:31:01 5.1 C 5.61 g/m*3 5.1 C 0 km/h
1069 18-01-2011 21:43:01 5 C 5.57 g/m*3 5 C 0 km/h
1070 18-01-2011 21:55:02 4.9 C 5.54 g/m*3 4.9 C 0 km/h
1071 18-01-2011 22:08:03 4.8 C 5.57 g/m*3 4.8 C 0 km/h
1072 18-01-2011 22:20:03 4.7 C 5.46 g/m*3 4.7 C 0 km/h
1073 18-01-2011 22:32:03 4.6 C 5.43 g/m*3 4.6 C 0 km/h
1074 18-01-2011 22:44:03 4.6 C 5.49 g/m*3 4.6 C 0 km/h
1075 18-01-2011 22:56:03 4.5 C 5.46 g/m*3 4.5 C 0 km/h
Sensor: Nr:Datum:Temp:Abs-Feuchte:Windchill:Wind:
Aussen-T/F 1076 18-01-2011 23:08:04 4.6 C 5.49 g/m*3 4.6 C 0 km/h
1077 18-01-2011 23:20:04 4.6 C 5.43 g/m*3 4.6 C 0 km/h
1078 18-01-2011 23:32:04 4.6 C 5.43 g/m*3 4.6 C 0 km/h
1079 18-01-2011 23:44:04 4.8 C 5.5 g/m*3 4.8 C 0 km/h
1080 18-01-2011 23:56:04 4.8 C 5.5 g/m*3 4.8 C 0 km/h
1081 19-01-2011 00:08:04 4.7 C 5.46 g/m*3 4.7 C 0 km/h
1082 19-01-2011 00:20:04 4.6 C 5.36 g/m*3 4.6 C 0 km/h
1083 19-01-2011 00:32:04 4.3 C 5.06 g/m*3 4.3 C 0 km/h
1084 19-01-2011 00:44:04 4.1 C 5.06 g/m*3 4.1 C 0 km/h
1085 19-01-2011 00:56:04 4.1 C 5.06 g/m*3 4.1 C 0 km/h
1086 19-01-2011 01:08:04 4 C 4.9 g/m*3 4 C 0 km/h
1087 19-01-2011 01:20:04 4 C 4.83 g/m*3 4 C 0 km/h
1088 19-01-2011 01:32:04 3.8 C 4.71 g/m*3 3.8 C 0 km/h
1089 19-01-2011 01:44:04 3.8 C 4.71 g/m*3 3.8 C 0 km/h
1090 19-01-2011 01:56:04 3.8 C 4.71 g/m*3 3.8 C 0 km/h
1091 19-01-2011 02:08:04 3.8 C 4.64 g/m*3 3.8 C 0 km/h
1092 19-01-2011 02:20:04 3.7 C 4.67 g/m*3 3.7 C 0 km/h
1093 19-01-2011 02:32:04 3.1 C 4.61 g/m*3 3.1 C 0 km/h
1094 19-01-2011 02:44:04 3.2 C 4.7 g/m*3 3.2 C 0 km/h
1095 19-01-2011 02:56:04 3.3 C 4.73 g/m*3 3.3 C 0 km/h
1096 19-01-2011 03:08:04 3.3 C 4.73 g/m*3 3.3 C 0 km/h
1097 19-01-2011 03:20:05 2.9 C 4.78 g/m*3 2.9 C 0 km/h
1098 19-01-2011 03:32:05 2.7 C 4.78 g/m*3 2.7 C 0 km/h
1099 19-01-2011 03:44:05 2.7 C 4.84 g/m*3 2.7 C 0 km/h
1100 19-01-2011 03:56:05 3 C 4.88 g/m*3 3 C 0 km/h
Sensor: Nr:Datum:Temp:Abs-Feuchte:Windchill:Wind:
Aussen-T/F 1101 19-01-2011 04:08:05 3 C 4.88 g/m*3 3 C 0 km/h
1102 19-01-2011 04:20:05 3 C 4.88 g/m*3 3 C 0 km/h
1103 19-01-2011 04:32:05 2.8 C 4.93 g/m*3 2.8 C 0 km/h
1104 19-01-2011 04:44:05 2.7 C 4.89 g/m*3 2.7 C 0 km/h
1105 19-01-2011 04:56:05 2.5 C 4.89 g/m*3 2.5 C 0 km/h
1106 19-01-2011 05:08:05 2.5 C 4.94 g/m*3 2.5 C 0 km/h
1107 19-01-2011 05:20:05 2.5 C 4.94 g/m*3 2.5 C 0 km/h
1108 19-01-2011 05:32:05 2.5 C 4.94 g/m*3 2.5 C 0 km/h
1109 19-01-2011 05:44:05 2.6 C 5.03 g/m*3 2.6 C 0 km/h
1110 19-01-2011 05:56:05 2.7 C 5.07 g/m*3 2.7 C 0 km/h
1111 19-01-2011 06:08:05 2.6 C 4.98 g/m*3 2.6 C 0 km/h
1112 19-01-2011 06:20:05 2.6 C 5.03 g/m*3 2.6 C 0 km/h
1113 19-01-2011 06:32:05 2.6 C 4.98 g/m*3 2.6 C 0 km/h
1114 19-01-2011 06:44:05 2.6 C 4.98 g/m*3 2.6 C 0 km/h
1115 19-01-2011 06:56:05 2.8 C 4.99 g/m*3 2.8 C 0 km/h
1116 19-01-2011 07:08:05 2.8 C 4.87 g/m*3 2.8 C 0 km/h
1117 19-01-2011 07:20:06 2.9 C 4.84 g/m*3 2.9 C 0 km/h
1118 19-01-2011 07:32:06 2.8 C 4.81 g/m*3 2.8 C 0 km/h
1119 19-01-2011 07:44:06 2.9 C 4.9 g/m*3 2.9 C 0 km/h
1120 19-01-2011 07:56:02 2.6 C 4.8 g/m*3 2.6 C 0 km/h
1121 19-01-2011 08:08:02 2.4 C 4.8 g/m*3 2.4 C 0 km/h
1122 19-01-2011 08:20:02 2.3 C 4.82 g/m*3 2.3 C 0 km/h
1123 19-01-2011 08:32:02 2.3 C 4.88 g/m*3 2.3 C 0 km/h
1124 19-01-2011 08:44:02 2.3 C 4.88 g/m*3 2.3 C 0 km/h
1125 19-01-2011 08:56:02 2.7 C 4.95 g/m*3 2.7 C 0 km/h
Sensor: Nr:Datum:Temp:Abs-Feuchte:Windchill:Wind:
Aussen-T/F 1126 19-01-2011 09:08:02 2.4 C 4.74 g/m*3 2.4 C 0 km/h
1127 19-01-2011 09:20:03 2.5 C 4.77 g/m*3 2.5 C 0 km/h
1128 19-01-2011 09:32:02 2.7 C 4.84 g/m*3 2.7 C 0 km/h
1129 19-01-2011 09:44:02 2.9 C 4.9 g/m*3 2.9 C 0 km/h
1130 19-01-2011 09:56:02 3 C 4.82 g/m*3 3 C 0 km/h
1131 19-01-2011 10:08:02 3.1 C 4.85 g/m*3 3.1 C 0 km/h
1132 19-01-2011 10:20:02 2.1 C 4.53 g/m*3 2.1 C 0 km/h
1133 19-01-2011 10:32:03 2 C 4.56 g/m*3 2 C 0 km/h
1134 19-01-2011 10:44:03 2.1 C 4.59 g/m*3 2.1 C 0 km/h
1135 19-01-2011 10:56:02 2.7 C 4.89 g/m*3 2.7 C 0 km/h
1136 19-01-2011 11:08:01 3.1 C 4.85 g/m*3 3.1 C 0 km/h
1137 19-01-2011 11:20:02 3.5 C 4.86 g/m*3 3.5 C 0 km/h
1138 19-01-2011 11:32:02 4 C 4.96 g/m*3 4 C 0 km/h
1139 19-01-2011 11:44:02 3.9 C 4.8 g/m*3 3.9 C 0 km/h
1140 19-01-2011 11:56:02 3.7 C 4.74 g/m*3 3.7 C 0 km/h
1141 19-01-2011 12:08:03 4.1 C 4.67 g/m*3 4.1 C 0 km/h
1142 19-01-2011 12:20:02 4.3 C 4.67 g/m*3 4.3 C 0 km/h
1143 19-01-2011 12:32:02 4.4 C 4.7 g/m*3 4.4 C 0 km/h
1144 19-01-2011 12:44:03 4.6 C 4.57 g/m*3 4.6 C 0 km/h
1145 19-01-2011 12:56:01 4.8 C 4.56 g/m*3 4.8 C 0 km/h
1146 19-01-2011 13:08:02 4.8 C 4.43 g/m*3 4.8 C 0 km/h
1147 19-01-2011 13:20:01 4.7 C 4.4 g/m*3 4.7 C 0 km/h
1148 19-01-2011 13:32:01 5 C 4.28 g/m*3 5 C 0 km/h
1149 19-01-2011 13:44:01 5.2 C 4.34 g/m*3 5.2 C 0 km/h
1150 19-01-2011 13:56:01 5 C 4.28 g/m*3 5 C 0 km/h
Sensor: Nr:Datum:Temp:Abs-Feuchte:Windchill:Wind:
Aussen-T/F 1151 19-01-2011 14:08:02 5.3 C 4.3 g/m*3 5.3 C 0 km/h
1152 19-01-2011 14:20:02 5.2 C 4.27 g/m*3 5.2 C 0 km/h
1153 19-01-2011 14:32:01 5.4 C 4.19 g/m*3 5.4 C 0 km/h
1154 19-01-2011 14:44:01 5.5 C 4.21 g/m*3 5.5 C 0 km/h
1155 19-01-2011 14:56:01 5.4 C 4.26 g/m*3 5.4 C 0 km/h
1156 19-01-2011 15:08:01 5.1 C 4.17 g/m*3 5.1 C 0 km/h
1157 19-01-2011 15:20:02 4.9 C 4.12 g/m*3 4.9 C 0 km/h
1158 19-01-2011 15:32:01 4.9 C 4.12 g/m*3 4.9 C 0 km/h
1159 19-01-2011 15:44:01 4.9 C 4.12 g/m*3 4.9 C 0 km/h
1160 19-01-2011 15:56:02 4.9 C 4.12 g/m*3 4.9 C 0 km/h
1161 19-01-2011 16:08:01 4.9 C 4.12 g/m*3 4.9 C 0 km/h
1162 19-01-2011 16:20:01 4.9 C 4.12 g/m*3 4.9 C 0 km/h
1163 19-01-2011 16:32:02 3.8 C 4.52 g/m*3 3.8 C 0 km/h
1164 19-01-2011 16:44:02 3.8 C 4.52 g/m*3 3.8 C 0 km/h
1165 19-01-2011 16:56:02 3.5 C 4.55 g/m*3 3.5 C 0 km/h
1166 19-01-2011 17:08:02 3.7 C 4.55 g/m*3 3.7 C 0 km/h
1167 19-01-2011 17:20:02 3.5 C 4.49 g/m*3 3.5 C 0 km/h
1168 19-01-2011 17:32:02 3.5 C 4.49 g/m*3 3.5 C 0 km/h
1169 19-01-2011 17:44:02 3.1 C 4.49 g/m*3 3.1 C 0 km/h
1170 19-01-2011 17:56:01 2.9 C 4.67 g/m*3 2.9 C 0 km/h
1171 19-01-2011 18:08:02 2.8 C 4.69 g/m*3 2.8 C 0 km/h
1172 19-01-2011 18:20:01 2.9 C 4.78 g/m*3 2.9 C 0 km/h
1173 19-01-2011 18:32:02 2.6 C 4.69 g/m*3 2.6 C 0 km/h
1174 19-01-2011 18:44:03 3.2 C 4.82 g/m*3 3.2 C 0 km/h
1175 19-01-2011 18:56:02 3.2 C 4.52 g/m*3 3.2 C 0 km/h
Sensor: Nr:Datum:Temp:Abs-Feuchte:Windchill:Wind:
Aussen-T/F 1176 19-01-2011 19:08:02 3.4 C 4.46 g/m*3 3.4 C 0 km/h
1177 19-01-2011 19:20:01 3.5 C 4.43 g/m*3 3.5 C 0 km/h
1178 19-01-2011 19:32:02 3.5 C 4.37 g/m*3 3.5 C 0 km/h
1179 19-01-2011 19:44:02 3 C 4.46 g/m*3 3 C 0 km/h
1180 19-01-2011 19:56:01 2.6 C 4.57 g/m*3 2.6 C 0 km/h
1181 19-01-2011 20:08:02 2.3 C 4.59 g/m*3 2.3 C 0 km/h
1182 19-01-2011 20:20:02 2.2 C 4.62 g/m*3 2.2 C 0 km/h
1183 19-01-2011 20:32:02 2.4 C 4.74 g/m*3 2.4 C 0 km/h
1184 19-01-2011 20:44:02 2.4 C 4.74 g/m*3 2.4 C 0 km/h
1185 19-01-2011 20:56:02 2.5 C 4.77 g/m*3 2.5 C 0 km/h
1186 19-01-2011 21:08:02 2.6 C 4.86 g/m*3 2.6 C 0 km/h
1187 19-01-2011 21:20:02 2.5 C 4.77 g/m*3 2.5 C 0 km/h
1188 19-01-2011 21:32:02 2.4 C 4.74 g/m*3 2.4 C 0 km/h
1189 19-01-2011 21:44:02 2.5 C 4.77 g/m*3 2.5 C 0 km/h
1190 19-01-2011 21:56:02 2.5 C 4.77 g/m*3 2.5 C 0 km/h
1191 19-01-2011 22:08:02 2.4 C 4.74 g/m*3 2.4 C 0 km/h
1192 19-01-2011 22:21:03 2.4 C 4.74 g/m*3 2.4 C 0 km/h
1193 19-01-2011 22:33:03 2.4 C 4.74 g/m*3 2.4 C 0 km/h
1194 19-01-2011 22:45:03 2.4 C 4.74 g/m*3 2.4 C 0 km/h
1195 19-01-2011 22:57:03 2.4 C 4.68 g/m*3 2.4 C 0 km/h
1196 19-01-2011 23:09:03 2.4 C 4.68 g/m*3 2.4 C 0 km/h
1197 19-01-2011 23:21:03 2.4 C 4.74 g/m*3 2.4 C 0 km/h
1198 19-01-2011 23:33:03 2.4 C 4.74 g/m*3 2.4 C 0 km/h
1199 19-01-2011 23:45:03 2.1 C 4.64 g/m*3 2.1 C 0 km/h
1200 19-01-2011 23:57:03 2.1 C 4.64 g/m*3 2.1 C 0 km/h
Sensor: Nr:Datum:Temp:Abs-Feuchte:Windchill:Wind:
Aussen-T/F 1201 20-01-2011 00:09:03 1.8 C 4.71 g/m*3 1.8 C 0 km/h
1202 20-01-2011 00:21:04 1.7 C 4.68 g/m*3 1.7 C 0 km/h
1203 20-01-2011 00:33:04 1.7 C 4.68 g/m*3 1.7 C 0 km/h
1204 20-01-2011 00:45:04 1.7 C 4.79 g/m*3 1.7 C 0 km/h
1205 20-01-2011 00:57:04 1.7 C 4.79 g/m*3 1.7 C 0 km/h
1206 20-01-2011 01:09:04 1.8 C 4.82 g/m*3 1.8 C 0 km/h
1207 20-01-2011 01:21:04 1.8 C 4.88 g/m*3 1.8 C 0 km/h
1208 20-01-2011 01:33:04 1.8 C 4.88 g/m*3 1.8 C 0 km/h
1209 20-01-2011 01:45:04 1.9 C 4.91 g/m*3 1.9 C 0 km/h
1210 20-01-2011 01:57:04 1.8 C 4.88 g/m*3 1.8 C 0 km/h
1211 20-01-2011 02:09:04 1.8 C 4.88 g/m*3 1.8 C 0 km/h
1212 20-01-2011 02:21:04 0.9 C 4.59 g/m*3 0.9 C 0 km/h
1213 20-01-2011 02:33:04 1 C 4.62 g/m*3 1 C 0 km/h
1214 20-01-2011 02:45:04 1.1 C 4.7 g/m*3 1.1 C 0 km/h
1215 20-01-2011 02:57:04 1.3 C 4.77 g/m*3 1.3 C 0 km/h
1216 20-01-2011 03:09:04 1.4 C 4.8 g/m*3 1.4 C 0 km/h
1217 20-01-2011 03:21:04 1.3 C 4.82 g/m*3 1.3 C 0 km/h
1218 20-01-2011 03:33:04 1.4 C 4.85 g/m*3 1.4 C 0 km/h
1219 20-01-2011 03:45:04 1.4 C 4.85 g/m*3 1.4 C 0 km/h
1220 20-01-2011 03:57:04 1.2 C 4.79 g/m*3 1.2 C 0 km/h
1221 20-01-2011 04:09:04 1.2 C 4.79 g/m*3 1.2 C 0 km/h
1222 20-01-2011 04:21:05 1.3 C 4.82 g/m*3 1.3 C 0 km/h
1223 20-01-2011 04:33:05 1.3 C 4.82 g/m*3 1.3 C 0 km/h
1224 20-01-2011 04:45:05 1 C 4.72 g/m*3 1 C 0 km/h
1225 20-01-2011 04:57:05 1 C 4.72 g/m*3 1 C 0 km/h
Sensor: Nr:Datum:Temp:Abs-Feuchte:Windchill:Wind:
Aussen-T/F 1226 20-01-2011 05:09:05 1.3 C 4.82 g/m*3 1.3 C 0 km/h
1227 20-01-2011 05:21:05 1.2 C 4.79 g/m*3 1.2 C 0 km/h
1228 20-01-2011 05:33:05 1.4 C 4.91 g/m*3 1.4 C 0 km/h
1229 20-01-2011 05:45:05 1.4 C 4.91 g/m*3 1.4 C 0 km/h
1230 20-01-2011 05:57:05 1.5 C 4.94 g/m*3 1.5 C 0 km/h
1231 20-01-2011 06:09:05 1.4 C 4.91 g/m*3 1.4 C 0 km/h
1232 20-01-2011 06:21:05 1.4 C 4.91 g/m*3 1.4 C 0 km/h
1233 20-01-2011 06:33:05 1.2 C 4.84 g/m*3 1.2 C 0 km/h
1234 20-01-2011 06:45:05 1.2 C 4.79 g/m*3 1.2 C 0 km/h
1235 20-01-2011 06:57:05 1.2 C 4.79 g/m*3 1.2 C 0 km/h
1236 20-01-2011 07:09:02 1.1 C 4.76 g/m*3 1.1 C 0 km/h
1237 20-01-2011 07:21:02 1 C 4.72 g/m*3 1 C 0 km/h
1238 20-01-2011 07:33:02 1 C 4.72 g/m*3 1 C 0 km/h
1239 20-01-2011 07:45:02 1 C 4.72 g/m*3 1 C 0 km/h
1240 20-01-2011 07:57:03 1 C 4.72 g/m*3 1 C 0 km/h
1241 20-01-2011 08:09:02 1.2 C 4.79 g/m*3 1.2 C 0 km/h
1242 20-01-2011 08:21:02 1.2 C 4.79 g/m*3 1.2 C 0 km/h
1243 20-01-2011 08:33:03 1.2 C 4.74 g/m*3 1.2 C 0 km/h
1244 20-01-2011 08:45:02 1.2 C 4.74 g/m*3 1.2 C 0 km/h
1245 20-01-2011 08:57:02 1.2 C 4.68 g/m*3 1.2 C 0 km/h
1246 20-01-2011 09:09:02 1.2 C 4.68 g/m*3 1.2 C 0 km/h
1247 20-01-2011 09:21:02 1.3 C 4.72 g/m*3 1.3 C 0 km/h
1248 20-01-2011 09:33:02 1.4 C 4.69 g/m*3 1.4 C 0 km/h
1249 20-01-2011 09:45:02 1.6 C 4.7 g/m*3 1.6 C 0 km/h
1250 20-01-2011 09:57:02 1.7 C 4.68 g/m*3 1.7 C 0 km/h
Sensor: Nr:Datum:Temp:Abs-Feuchte:Windchill:Wind:
Aussen-T/F 1251 20-01-2011 10:09:02 1.8 C 4.66 g/m*3 1.8 C 0 km/h
1252 20-01-2011 10:21:02 1.8 C 4.66 g/m*3 1.8 C 0 km/h
1253 20-01-2011 10:33:02 2.1 C 4.64 g/m*3 2.1 C 0 km/h
1254 20-01-2011 10:45:02 2.1 C 4.53 g/m*3 2.1 C 0 km/h
1255 20-01-2011 10:57:02 2.3 C 4.54 g/m*3 2.3 C 0 km/h
1256 20-01-2011 11:09:02 2.3 C 4.54 g/m*3 2.3 C 0 km/h
1257 20-01-2011 11:21:02 2.7 C 4.54 g/m*3 2.7 C 0 km/h
1258 20-01-2011 11:33:02 2.8 C 4.52 g/m*3 2.8 C 0 km/h
1259 20-01-2011 11:45:01 2.6 C 4.4 g/m*3 2.6 C 0 km/h
1260 20-01-2011 11:57:01 3.2 C 4.64 g/m*3 3.2 C 0 km/h
1261 20-01-2011 12:09:01 3.1 C 4.49 g/m*3 3.1 C 0 km/h
1262 20-01-2011 12:21:02 3.2 C 4.46 g/m*3 3.2 C 0 km/h
1263 20-01-2011 12:33:01 3.2 C 4.4 g/m*3 3.2 C 0 km/h
1264 20-01-2011 12:45:01 3.4 C 4.46 g/m*3 3.4 C 0 km/h
1265 20-01-2011 12:57:01 3.4 C 4.4 g/m*3 3.4 C 0 km/h
1266 20-01-2011 13:09:01 3.5 C 4.37 g/m*3 3.5 C 0 km/h
1267 20-01-2011 13:21:02 3.8 C 4.39 g/m*3 3.8 C 0 km/h
1268 20-01-2011 13:33:01 4 C 4.39 g/m*3 4 C 0 km/h
1269 20-01-2011 13:45:02 4 C 4.32 g/m*3 4 C 0 km/h
1270 20-01-2011 13:57:02 4.1 C 4.29 g/m*3 4.1 C 0 km/h
1271 20-01-2011 14:09:02 4.1 C 4.29 g/m*3 4.1 C 0 km/h
1272 20-01-2011 14:21:02 4.1 C 4.29 g/m*3 4.1 C 0 km/h
1273 20-01-2011 14:33:01 4.1 C 4.29 g/m*3 4.1 C 0 km/h
1274 20-01-2011 14:45:02 4.1 C 4.29 g/m*3 4.1 C 0 km/h
1275 20-01-2011 14:57:03 4.1 C 4.29 g/m*3 4.1 C 0 km/h
Sensor: Nr:Datum:Temp:Abs-Feuchte:Windchill:Wind:
Aussen-T/F 1276 20-01-2011 15:09:01 4.1 C 4.29 g/m*3 4.1 C 0 km/h
1277 20-01-2011 15:21:02 4.1 C 4.29 g/m*3 4.1 C 0 km/h
1278 20-01-2011 15:33:02 2.7 C 3.96 g/m*3 2.7 C 0 km/h
1279 20-01-2011 15:45:02 2.7 C 3.96 g/m*3 2.7 C 0 km/h
1280 20-01-2011 15:57:02 2.7 C 4.02 g/m*3 2.7 C 0 km/h
1281 20-01-2011 16:09:02 2.7 C 4.02 g/m*3 2.7 C 0 km/h
1282 20-01-2011 16:21:02 2.6 C 3.99 g/m*3 2.6 C 0 km/h
1283 20-01-2011 16:33:02 2.5 C 3.97 g/m*3 2.5 C 0 km/h
1284 20-01-2011 16:45:01 2.4 C 4 g/m*3 2.4 C 0 km/h
1285 20-01-2011 16:57:01 2.2 C 3.94 g/m*3 2.2 C 0 km/h
1286 20-01-2011 17:09:02 2.2 C 3.94 g/m*3 2.2 C 0 km/h
1287 20-01-2011 17:21:01 2 C 3.95 g/m*3 2 C 0 km/h
1288 20-01-2011 17:33:01 2 C 3.95 g/m*3 2 C 0 km/h
1289 20-01-2011 17:45:02 1.9 C 3.97 g/m*3 1.9 C 0 km/h
1290 20-01-2011 17:57:02 1.8 C 3.95 g/m*3 1.8 C 0 km/h
1291 20-01-2011 18:09:02 1.7 C 3.97 g/m*3 1.7 C 0 km/h
1292 20-01-2011 18:21:02 1.7 C 3.97 g/m*3 1.7 C 0 km/h
1293 20-01-2011 18:33:02 1.7 C 3.97 g/m*3 1.7 C 0 km/h
1294 20-01-2011 18:45:02 1.7 C 3.97 g/m*3 1.7 C 0 km/h
1295 20-01-2011 18:57:02 1.7 C 3.97 g/m*3 1.7 C 0 km/h
1296 20-01-2011 19:09:02 1.7 C 3.97 g/m*3 1.7 C 0 km/h
1297 20-01-2011 19:21:02 1.4 C 3.95 g/m*3 1.4 C 0 km/h
1298 20-01-2011 19:33:03 1.2 C 3.89 g/m*3 1.2 C 0 km/h
1299 20-01-2011 19:45:02 1.1 C 3.81 g/m*3 1.1 C 0 km/h
1300 20-01-2011 19:57:02 1.1 C 3.81 g/m*3 1.1 C 0 km/h
Sensor: Nr:Datum:Temp:Abs-Feuchte:Windchill:Wind:
Aussen-T/F 1301 20-01-2011 20:09:01 0.8 C 3.79 g/m*3 0.8 C 0 km/h
1302 20-01-2011 20:21:02 0.8 C 3.79 g/m*3 0.8 C 0 km/h
1303 20-01-2011 20:33:01 1.1 C 3.71 g/m*3 1.1 C 0 km/h
1304 20-01-2011 20:45:02 1.1 C 3.71 g/m*3 1.1 C 0 km/h
1305 20-01-2011 20:57:02 0.7 C 3.61 g/m*3 0.7 C 0 km/h
1306 20-01-2011 21:09:01 0 C 3.49 g/m*3 0 C 0 km/h
1307 20-01-2011 21:21:01 0 C 3.63 g/m*3 0 C 0 km/h
1308 20-01-2011 21:33:01 -0.2 C 3.63 g/m*3 -0.2 C 0 km/h
1309 20-01-2011 21:45:02 -0.4 C 3.58 g/m*3 -0.4 C 0 km/h
1310 20-01-2011 21:57:03 -0.2 C 3.63 g/m*3 -0.2 C 0 km/h
1311 20-01-2011 22:10:04 -0.4 C 3.53 g/m*3 -0.4 C 0 km/h
1312 20-01-2011 22:22:04 -0.2 C 3.54 g/m*3 -0.2 C 0 km/h
1313 20-01-2011 22:34:04 -0.4 C 3.49 g/m*3 -0.4 C 0 km/h
1314 20-01-2011 22:46:04 -0.2 C 3.58 g/m*3 -0.2 C 0 km/h
1315 20-01-2011 22:58:04 -0.2 C 3.58 g/m*3 -0.2 C 0 km/h
1316 20-01-2011 23:10:04 -0.4 C 3.58 g/m*3 -0.4 C 0 km/h
1317 20-01-2011 23:22:04 0 C 3.68 g/m*3 0 C 0 km/h
1318 20-01-2011 23:34:04 0.2 C 3.68 g/m*3 0.2 C 0 km/h
1319 20-01-2011 23:46:04 0.3 C 3.66 g/m*3 0.3 C 0 km/h
1320 20-01-2011 23:58:04 0.3 C 3.61 g/m*3 0.3 C 0 km/h
1321 21-01-2011 00:10:04 0.4 C 3.29 g/m*3 0.4 C 0 km/h
1322 21-01-2011 00:22:04 0.4 C 3.14 g/m*3 0.4 C 0 km/h
1323 21-01-2011 00:34:04 0.4 C 3.14 g/m*3 0.4 C 0 km/h
1324 21-01-2011 00:46:04 0.3 C 3.07 g/m*3 0.3 C 0 km/h
1325 21-01-2011 00:58:04 0.2 C 3.05 g/m*3 0.2 C 0 km/h
Sensor: Nr:Datum:Temp:Abs-Feuchte:Windchill:Wind:
Aussen-T/F 1326 21-01-2011 01:10:04 0.1 C 3.17 g/m*3 0.1 C 0 km/h
1327 21-01-2011 01:22:04 0.1 C 3.12 g/m*3 0.1 C 0 km/h
1328 21-01-2011 01:34:04 0.2 C 3.05 g/m*3 0.2 C 0 km/h
1329 21-01-2011 01:46:05 0.2 C 3.05 g/m*3 0.2 C 0 km/h
1330 21-01-2011 01:58:05 0.3 C 3.02 g/m*3 0.3 C 0 km/h
1331 21-01-2011 02:10:05 0.2 C 3.09 g/m*3 0.2 C 0 km/h
1332 21-01-2011 02:22:05 0.2 C 3.19 g/m*3 0.2 C 0 km/h
1333 21-01-2011 02:34:05 0.1 C 3.27 g/m*3 0.1 C 0 km/h
1334 21-01-2011 02:46:05 0 C 3.05 g/m*3 0 C 0 km/h
1335 21-01-2011 02:58:05 -0.3 C 2.94 g/m*3 -0.3 C 0 km/h
1336 21-01-2011 03:10:05 -0.3 C 2.8 g/m*3 -0.3 C 0 km/h
1337 21-01-2011 03:22:05 -0.4 C 2.83 g/m*3 -0.4 C 0 km/h
1338 21-01-2011 03:34:05 -0.5 C 2.81 g/m*3 -0.5 C 0 km/h
1339 21-01-2011 03:46:05 -0.4 C 2.78 g/m*3 -0.4 C 0 km/h
1340 21-01-2011 03:58:05 -0.2 C 2.77 g/m*3 -0.2 C 0 km/h
1341 21-01-2011 04:10:05 -0.2 C 2.72 g/m*3 -0.2 C 0 km/h
1342 21-01-2011 04:22:05 -0.4 C 2.69 g/m*3 -0.4 C 0 km/h
1343 21-01-2011 04:34:05 -0.5 C 2.62 g/m*3 -0.5 C 0 km/h
1344 21-01-2011 04:46:05 -0.4 C 2.64 g/m*3 -0.4 C 0 km/h
1345 21-01-2011 04:58:05 -0.4 C 2.69 g/m*3 -0.4 C 0 km/h
1346 21-01-2011 05:10:05 -0.5 C 2.71 g/m*3 -0.5 C 0 km/h
1347 21-01-2011 05:22:05 -0.5 C 2.76 g/m*3 -0.5 C 0 km/h
1348 21-01-2011 05:34:05 -0.3 C 2.75 g/m*3 -0.3 C 0 km/h
1349 21-01-2011 05:46:06 -0.4 C 2.78 g/m*3 -0.4 C 0 km/h
1350 21-01-2011 05:58:06 -0.6 C 2.74 g/m*3 -0.6 C 0 km/h
Sensor: Nr:Datum:Temp:Abs-Feuchte:Windchill:Wind:
Aussen-T/F 1351 21-01-2011 06:10:06 -0.7 C 2.77 g/m*3 -0.7 C 0 km/h
1352 21-01-2011 06:22:06 -1 C 2.8 g/m*3 -1 C 0 km/h
1353 21-01-2011 06:34:06 -0.9 C 2.87 g/m*3 -0.9 C 0 km/h
1354 21-01-2011 06:46:06 -0.6 C 2.84 g/m*3 -0.6 C 0 km/h
1355 21-01-2011 06:58:06 -0.5 C 2.76 g/m*3 -0.5 C 0 km/h
1356 21-01-2011 07:10:06 -0.5 C 2.76 g/m*3 -0.5 C 0 km/h
1357 21-01-2011 07:22:04 -0.6 C 2.7 g/m*3 -0.6 C 0 km/h
1358 21-01-2011 07:34:04 -0.6 C 2.65 g/m*3 -0.6 C 0 km/h
1359 21-01-2011 07:46:02 -0.7 C 2.63 g/m*3 -0.7 C 0 km/h
1360 21-01-2011 07:58:02 -0.6 C 2.6 g/m*3 -0.6 C 0 km/h
1361 21-01-2011 08:10:01 -0.6 C 2.65 g/m*3 -0.6 C 0 km/h
1362 21-01-2011 08:22:02 -0.4 C 2.73 g/m*3 -0.4 C 0 km/h
1363 21-01-2011 08:34:02 -0.5 C 2.67 g/m*3 -0.5 C 0 km/h
1364 21-01-2011 08:46:02 -0.5 C 2.71 g/m*3 -0.5 C 0 km/h
1365 21-01-2011 08:58:02 -0.5 C 2.67 g/m*3 -0.5 C 0 km/h
1366 21-01-2011 09:10:02 -0.4 C 2.69 g/m*3 -0.4 C 0 km/h
1367 21-01-2011 09:22:02 -0.2 C 2.77 g/m*3 -0.2 C 0 km/h
1368 21-01-2011 09:34:02 -0.1 C 2.79 g/m*3 -0.1 C 0 km/h
1369 21-01-2011 09:46:01 0 C 2.81 g/m*3 0 C 0 km/h
1370 21-01-2011 09:58:01 0 C 2.71 g/m*3 0 C 0 km/h
1371 21-01-2011 10:10:02 0.1 C 2.73 g/m*3 0.1 C 0 km/h
1372 21-01-2011 10:22:02 0.3 C 2.77 g/m*3 0.3 C 0 km/h
1373 21-01-2011 10:34:02 0.1 C 2.73 g/m*3 0.1 C 0 km/h
1374 21-01-2011 10:46:02 0.1 C 2.73 g/m*3 0.1 C 0 km/h
1375 21-01-2011 10:58:02 0.1 C 2.73 g/m*3 0.1 C 0 km/h
Sensor: Nr:Datum:Temp:Abs-Feuchte:Windchill:Wind:
Aussen-T/F 1376 21-01-2011 11:10:01 0.2 C 2.8 g/m*3 0.2 C 0 km/h
1377 21-01-2011 11:22:02 -0.1 C 2.79 g/m*3 -0.1 C 0 km/h
1378 21-01-2011 11:34:01 -0.2 C 2.77 g/m*3 -0.2 C 0 km/h
1379 21-01-2011 11:46:02 0.1 C 2.93 g/m*3 0.1 C 0 km/h
1380 21-01-2011 11:58:03 0.1 C 2.83 g/m*3 0.1 C 0 km/h
1381 21-01-2011 12:10:02 0.4 C 2.94 g/m*3 0.4 C 0 km/h
1382 21-01-2011 12:22:02 0.1 C 2.83 g/m*3 0.1 C 0 km/h
1383 21-01-2011 12:34:02 -0.2 C 2.82 g/m*3 -0.2 C 0 km/h
1384 21-01-2011 12:46:01 0.5 C 2.96 g/m*3 0.5 C 0 km/h
1385 21-01-2011 12:58:01 0.8 C 2.97 g/m*3 0.8 C 0 km/h
1386 21-01-2011 13:10:02 0.8 C 3.02 g/m*3 0.8 C 0 km/h
1387 21-01-2011 13:22:01 1.4 C 2.93 g/m*3 1.4 C 0 km/h
1388 21-01-2011 13:34:02 1.5 C 2.95 g/m*3 1.5 C 0 km/h
1389 21-01-2011 13:46:01 1 C 2.85 g/m*3 1 C 0 km/h
1390 21-01-2011 13:58:01 0.6 C 2.98 g/m*3 0.6 C 0 km/h
1391 21-01-2011 14:10:02 0.7 C 3 g/m*3 0.7 C 0 km/h
1392 21-01-2011 14:22:01 0.6 C 2.98 g/m*3 0.6 C 0 km/h
1393 21-01-2011 14:34:02 1.6 C 3.03 g/m*3 1.6 C 0 km/h
1394 21-01-2011 14:46:01 1.7 C 2.99 g/m*3 1.7 C 0 km/h
1395 21-01-2011 14:58:01 1.8 C 3.01 g/m*3 1.8 C 0 km/h
1396 21-01-2011 15:10:02 1.5 C 2.95 g/m*3 1.5 C 0 km/h
1397 21-01-2011 15:22:02 1.3 C 3.02 g/m*3 1.3 C 0 km/h
1398 21-01-2011 15:34:01 1 C 3.01 g/m*3 1 C 0 km/h
1399 21-01-2011 15:46:02 0.6 C 3.03 g/m*3 0.6 C 0 km/h
1400 21-01-2011 15:58:02 0.7 C 3.05 g/m*3 0.7 C 0 km/h
Sensor: Nr:Datum:Temp:Abs-Feuchte:Windchill:Wind:
Aussen-T/F 1401 21-01-2011 16:10:01 0.8 C 3.12 g/m*3 0.8 C 0 km/h
1402 21-01-2011 16:22:02 0.5 C 3.11 g/m*3 0.5 C 0 km/h
1403 21-01-2011 16:34:01 0 C 3.1 g/m*3 0 C 0 km/h
1404 21-01-2011 16:46:02 -0.2 C 3.11 g/m*3 -0.2 C 0 km/h
1405 21-01-2011 16:58:02 -0.2 C 3.2 g/m*3 -0.2 C 0 km/h
1406 21-01-2011 17:10:02 -0.4 C 3.2 g/m*3 -0.4 C 0 km/h
1407 21-01-2011 17:22:02 -0.3 C 3.27 g/m*3 -0.3 C 0 km/h
1408 21-01-2011 17:34:02 -0.3 C 3.27 g/m*3 -0.3 C 0 km/h
1409 21-01-2011 17:46:02 -0.1 C 3.27 g/m*3 -0.1 C 0 km/h
1410 21-01-2011 17:58:02 0 C 3.25 g/m*3 0 C 0 km/h
1411 21-01-2011 18:10:02 0 C 3.29 g/m*3 0 C 0 km/h
1412 21-01-2011 18:22:02 -0.1 C 3.27 g/m*3 -0.1 C 0 km/h
1413 21-01-2011 18:34:02 -0.2 C 3.25 g/m*3 -0.2 C 0 km/h
1414 21-01-2011 18:46:02 -0.2 C 3.25 g/m*3 -0.2 C 0 km/h
1415 21-01-2011 18:58:02 -0.2 C 3.25 g/m*3 -0.2 C 0 km/h
1416 21-01-2011 19:10:02 -0.2 C 3.25 g/m*3 -0.2 C 0 km/h
1417 21-01-2011 19:22:02 -0.4 C 3.25 g/m*3 -0.4 C 0 km/h
1418 21-01-2011 19:34:03 -0.4 C 3.25 g/m*3 -0.4 C 0 km/h
1419 21-01-2011 19:46:01 -0.5 C 3.23 g/m*3 -0.5 C 0 km/h
1420 21-01-2011 19:58:01 -0.5 C 3.28 g/m*3 -0.5 C 0 km/h
1421 21-01-2011 20:10:02 -0.5 C 3.28 g/m*3 -0.5 C 0 km/h
1422 21-01-2011 20:22:01 -0.4 C 3.39 g/m*3 -0.4 C 0 km/h
1423 21-01-2011 20:34:01 -0.4 C 3.44 g/m*3 -0.4 C 0 km/h
1424 21-01-2011 20:46:01 -0.4 C 3.44 g/m*3 -0.4 C 0 km/h
1425 21-01-2011 20:58:01 -0.4 C 3.44 g/m*3 -0.4 C 0 km/h
Sensor: Nr:Datum:Temp:Abs-Feuchte:Windchill:Wind:
Aussen-T/F 1426 21-01-2011 21:10:02 -0.7 C 3.55 g/m*3 -0.7 C 0 km/h
1427 21-01-2011 21:22:01 -0.7 C 3.6 g/m*3 -0.7 C 0 km/h
1428 21-01-2011 21:34:02 -0.8 C 3.62 g/m*3 -0.8 C 0 km/h
1429 21-01-2011 21:46:01 -0.9 C 3.6 g/m*3 -0.9 C 0 km/h
1430 21-01-2011 21:58:01 -0.8 C 3.67 g/m*3 -0.8 C 0 km/h
1431 21-01-2011 22:10:02 -0.7 C 3.69 g/m*3 -0.7 C 0 km/h
1432 21-01-2011 22:22:02 -0.6 C 3.72 g/m*3 -0.6 C 0 km/h
1433 21-01-2011 22:34:01 -0.6 C 3.72 g/m*3 -0.6 C 0 km/h
1434 21-01-2011 22:46:02 -0.5 C 3.7 g/m*3 -0.5 C 0 km/h
1435 21-01-2011 22:58:02 -0.5 C 3.7 g/m*3 -0.5 C 0 km/h
1436 21-01-2011 23:10:01 -0.5 C 3.74 g/m*3 -0.5 C 0 km/h
1437 21-01-2011 23:22:02 -0.5 C 3.79 g/m*3 -0.5 C 0 km/h
1438 21-01-2011 23:34:01 -0.5 C 3.79 g/m*3 -0.5 C 0 km/h
1439 21-01-2011 23:47:04 -0.5 C 3.79 g/m*3 -0.5 C 0 km/h
1440 21-01-2011 23:59:04 -0.4 C 3.86 g/m*3 -0.4 C 0 km/h
1441 22-01-2011 00:11:04 -0.4 C 3.86 g/m*3 -0.4 C 0 km/h
1442 22-01-2011 00:23:04 -0.4 C 3.86 g/m*3 -0.4 C 0 km/h
1443 22-01-2011 00:35:04 -0.4 C 3.86 g/m*3 -0.4 C 0 km/h
1444 22-01-2011 00:47:04 -0.4 C 3.86 g/m*3 -0.4 C 0 km/h
1445 22-01-2011 00:59:04 -0.4 C 3.86 g/m*3 -0.4 C 0 km/h
1446 22-01-2011 01:11:04 -0.4 C 3.86 g/m*3 -0.4 C 0 km/h
1447 22-01-2011 01:23:05 -0.4 C 3.86 g/m*3 -0.4 C 0 km/h
1448 22-01-2011 01:35:05 -0.4 C 3.86 g/m*3 -0.4 C 0 km/h
1449 22-01-2011 01:47:05 -0.4 C 3.86 g/m*3 -0.4 C 0 km/h
1450 22-01-2011 01:59:05 -0.4 C 3.86 g/m*3 -0.4 C 0 km/h
Sensor: Nr:Datum:Temp:Abs-Feuchte:Windchill:Wind:
Aussen-T/F 1451 22-01-2011 02:11:05 -0.4 C 3.86 g/m*3 -0.4 C 0 km/h
1452 22-01-2011 02:23:05 -0.4 C 3.86 g/m*3 -0.4 C 0 km/h
1453 22-01-2011 02:35:05 -0.4 C 3.86 g/m*3 -0.4 C 0 km/h
1454 22-01-2011 02:47:05 -0.4 C 3.86 g/m*3 -0.4 C 0 km/h
1455 22-01-2011 02:59:05 -0.4 C 3.86 g/m*3 -0.4 C 0 km/h
1456 22-01-2011 03:11:05 -0.4 C 3.86 g/m*3 -0.4 C 0 km/h
1457 22-01-2011 03:23:05 -0.4 C 3.86 g/m*3 -0.4 C 0 km/h
1458 22-01-2011 03:35:05 -0.4 C 3.86 g/m*3 -0.4 C 0 km/h
1459 22-01-2011 03:47:05 -0.4 C 3.86 g/m*3 -0.4 C 0 km/h
1460 22-01-2011 03:59:05 -0.4 C 3.86 g/m*3 -0.4 C 0 km/h
1461 22-01-2011 04:11:05 -0.4 C 3.86 g/m*3 -0.4 C 0 km/h
1462 22-01-2011 04:23:05 -0.4 C 3.86 g/m*3 -0.4 C 0 km/h
1463 22-01-2011 04:35:05 -0.4 C 3.86 g/m*3 -0.4 C 0 km/h
1464 22-01-2011 04:47:05 -0.4 C 3.86 g/m*3 -0.4 C 0 km/h
1465 22-01-2011 04:59:05 -0.4 C 3.86 g/m*3 -0.4 C 0 km/h
1466 22-01-2011 05:11:05 -0.4 C 3.86 g/m*3 -0.4 C 0 km/h
1467 22-01-2011 05:23:05 -0.4 C 3.86 g/m*3 -0.4 C 0 km/h
1468 22-01-2011 05:35:06 -0.4 C 3.86 g/m*3 -0.4 C 0 km/h
1469 22-01-2011 05:47:06 -0.4 C 3.86 g/m*3 -0.4 C 0 km/h
1470 22-01-2011 05:59:06 -0.4 C 3.86 g/m*3 -0.4 C 0 km/h
1471 22-01-2011 06:11:06 -0.4 C 3.86 g/m*3 -0.4 C 0 km/h
1472 22-01-2011 06:23:06 -0.4 C 3.86 g/m*3 -0.4 C 0 km/h
1473 22-01-2011 06:35:06 -0.4 C 3.86 g/m*3 -0.4 C 0 km/h
1474 22-01-2011 06:47:06 -0.4 C 3.86 g/m*3 -0.4 C 0 km/h
1475 22-01-2011 06:59:06 -0.4 C 3.86 g/m*3 -0.4 C 0 km/h
Sensor: Nr:Datum:Temp:Abs-Feuchte:Windchill:Wind:
Aussen-T/F 1476 22-01-2011 07:11:06 -0.4 C 3.86 g/m*3 -0.4 C 0 km/h
1477 22-01-2011 07:23:06 -0.4 C 3.86 g/m*3 -0.4 C 0 km/h
1478 22-01-2011 07:35:06 -0.4 C 3.86 g/m*3 -0.4 C 0 km/h
1479 22-01-2011 07:47:06 -0.4 C 3.86 g/m*3 -0.4 C 0 km/h
1480 22-01-2011 07:59:06 -0.4 C 3.86 g/m*3 -0.4 C 0 km/h
1481 22-01-2011 08:11:06 -0.4 C 3.86 g/m*3 -0.4 C 0 km/h
1482 22-01-2011 08:23:06 -0.4 C 3.86 g/m*3 -0.4 C 0 km/h
1483 22-01-2011 08:35:06 -0.4 C 3.86 g/m*3 -0.4 C 0 km/h
1484 22-01-2011 08:47:06 -0.4 C 3.86 g/m*3 -0.4 C 0 km/h
1485 22-01-2011 08:59:06 0 C 3.97 g/m*3 0 C 0 km/h
1486 22-01-2011 09:11:06 0 C 3.97 g/m*3 0 C 0 km/h
1487 22-01-2011 09:23:06 0 C 3.97 g/m*3 0 C 0 km/h
1488 22-01-2011 09:35:07 0 C 3.97 g/m*3 0 C 0 km/h
1489 22-01-2011 09:47:07 0 C 3.97 g/m*3 0 C 0 km/h
1490 22-01-2011 09:59:07 0 C 3.97 g/m*3 0 C 0 km/h
1491 22-01-2011 10:11:07 0 C 3.97 g/m*3 0 C 0 km/h
1492 22-01-2011 10:23:03 0.9 C 3.92 g/m*3 0.9 C 0 km/h
1493 22-01-2011 10:35:04 1.2 C 3.84 g/m*3 1.2 C 0 km/h
1494 22-01-2011 10:47:02 1.1 C 3.76 g/m*3 1.1 C 0 km/h
1495 22-01-2011 10:59:02 1.4 C 3.79 g/m*3 1.4 C 0 km/h
1496 22-01-2011 11:11:02 1.4 C 3.79 g/m*3 1.4 C 0 km/h
1497 22-01-2011 11:23:02 1.3 C 3.71 g/m*3 1.3 C 0 km/h
1498 22-01-2011 11:35:02 1.5 C 3.76 g/m*3 1.5 C 0 km/h
1499 22-01-2011 11:47:02 1.4 C 3.68 g/m*3 1.4 C 0 km/h
1500 22-01-2011 11:59:03 1.4 C 3.68 g/m*3 1.4 C 0 km/h
Sensor: Nr:Datum:Temp:Abs-Feuchte:Windchill:Wind:
Aussen-T/F 1501 22-01-2011 12:11:01 1.4 C 3.68 g/m*3 1.4 C 0 km/h
1502 22-01-2011 12:23:01 1.7 C 3.7 g/m*3 1.7 C 0 km/h
1503 22-01-2011 12:35:02 1.7 C 3.7 g/m*3 1.7 C 0 km/h
1504 22-01-2011 12:47:02 1.8 C 3.67 g/m*3 1.8 C 0 km/h
1505 22-01-2011 12:59:02 2 C 3.67 g/m*3 2 C 0 km/h
1506 22-01-2011 13:11:02 1.9 C 3.59 g/m*3 1.9 C 0 km/h
1507 22-01-2011 13:23:02 1.9 C 3.59 g/m*3 1.9 C 0 km/h
1508 22-01-2011 13:35:02 1.4 C 3.73 g/m*3 1.4 C 0 km/h
1509 22-01-2011 13:47:02 1.7 C 3.87 g/m*3 1.7 C 0 km/h
1510 22-01-2011 13:59:02 1.7 C 3.87 g/m*3 1.7 C 0 km/h
1511 22-01-2011 14:11:03 1.8 C 3.95 g/m*3 1.8 C 0 km/h
1512 22-01-2011 14:23:02 1.8 C 4 g/m*3 1.8 C 0 km/h
1513 22-01-2011 14:35:02 2 C 4.06 g/m*3 2 C 0 km/h
1514 22-01-2011 14:47:01 2 C 4 g/m*3 2 C 0 km/h
1515 22-01-2011 14:59:01 1.6 C 3.89 g/m*3 1.6 C 0 km/h
1516 22-01-2011 15:11:02 1.4 C 3.84 g/m*3 1.4 C 0 km/h
1517 22-01-2011 15:23:01 1.6 C 3.95 g/m*3 1.6 C 0 km/h
1518 22-01-2011 15:35:02 1.6 C 3.95 g/m*3 1.6 C 0 km/h
1519 22-01-2011 15:47:01 1.6 C 3.95 g/m*3 1.6 C 0 km/h
1520 22-01-2011 15:59:01 1.6 C 3.89 g/m*3 1.6 C 0 km/h
1521 22-01-2011 16:11:02 1.5 C 3.87 g/m*3 1.5 C 0 km/h
1522 22-01-2011 16:23:01 1.4 C 3.89 g/m*3 1.4 C 0 km/h
1523 22-01-2011 16:35:02 1.3 C 3.87 g/m*3 1.3 C 0 km/h
1524 22-01-2011 16:47:02 1.3 C 3.87 g/m*3 1.3 C 0 km/h
1525 22-01-2011 16:59:02 0.9 C 3.81 g/m*3 0.9 C 0 km/h
Sensor: Nr:Datum:Temp:Abs-Feuchte:Windchill:Wind:
Aussen-T/F 1526 22-01-2011 17:11:02 0.8 C 3.84 g/m*3 0.8 C 0 km/h
1527 22-01-2011 17:23:02 0.7 C 3.92 g/m*3 0.7 C 0 km/h
1528 22-01-2011 17:35:02 0.7 C 3.92 g/m*3 0.7 C 0 km/h
1529 22-01-2011 17:47:01 0.7 C 3.92 g/m*3 0.7 C 0 km/h
1530 22-01-2011 17:59:01 0.7 C 3.92 g/m*3 0.7 C 0 km/h
1531 22-01-2011 18:11:01 0.7 C 3.92 g/m*3 0.7 C 0 km/h
1532 22-01-2011 18:23:01 0.7 C 3.92 g/m*3 0.7 C 0 km/h
1533 22-01-2011 18:35:02 0.7 C 3.92 g/m*3 0.7 C 0 km/h
1534 22-01-2011 18:47:02 0.7 C 3.92 g/m*3 0.7 C 0 km/h
1535 22-01-2011 18:59:02 0 C 3.97 g/m*3 0 C 0 km/h
1536 22-01-2011 19:11:02 0.2 C 4.03 g/m*3 0.2 C 0 km/h
1537 22-01-2011 19:23:02 0.3 C 4.06 g/m*3 0.3 C 0 km/h
1538 22-01-2011 19:35:02 0.4 C 4.08 g/m*3 0.4 C 0 km/h
1539 22-01-2011 19:47:02 0.4 C 4.03 g/m*3 0.4 C 0 km/h
1540 22-01-2011 19:59:03 0.4 C 4.03 g/m*3 0.4 C 0 km/h
1541 22-01-2011 20:11:02 0.4 C 3.98 g/m*3 0.4 C 0 km/h
1542 22-01-2011 20:23:02 0.4 C 3.98 g/m*3 0.4 C 0 km/h
1543 22-01-2011 20:35:02 0.4 C 4.03 g/m*3 0.4 C 0 km/h
1544 22-01-2011 20:47:02 0.4 C 4.03 g/m*3 0.4 C 0 km/h
1545 22-01-2011 20:59:02 0.3 C 4.01 g/m*3 0.3 C 0 km/h
1546 22-01-2011 21:11:02 0.4 C 4.03 g/m*3 0.4 C 0 km/h
1547 22-01-2011 21:23:01 0.4 C 4.03 g/m*3 0.4 C 0 km/h
1548 22-01-2011 21:35:02 0.3 C 4.01 g/m*3 0.3 C 0 km/h
1549 22-01-2011 21:47:02 0.3 C 4.06 g/m*3 0.3 C 0 km/h
1550 22-01-2011 21:59:02 0.2 C 4.03 g/m*3 0.2 C 0 km/h
Sensor: Nr:Datum:Temp:Abs-Feuchte:Windchill:Wind:
Aussen-T/F 1551 22-01-2011 22:11:02 0.3 C 4.06 g/m*3 0.3 C 0 km/h
1552 22-01-2011 22:24:03 0.3 C 4.06 g/m*3 0.3 C 0 km/h
1553 22-01-2011 22:36:03 0.2 C 4.03 g/m*3 0.2 C 0 km/h
1554 22-01-2011 22:48:03 0.2 C 4.03 g/m*3 0.2 C 0 km/h
1555 22-01-2011 23:00:03 0 C 3.97 g/m*3 0 C 0 km/h
1556 22-01-2011 23:12:03 0 C 3.97 g/m*3 0 C 0 km/h
1557 22-01-2011 23:24:03 0 C 3.97 g/m*3 0 C 0 km/h
1558 22-01-2011 23:36:03 0 C 3.97 g/m*3 0 C 0 km/h
1559 22-01-2011 23:48:03 0 C 3.97 g/m*3 0 C 0 km/h
1560 23-01-2011 00:00:03 0.2 C 4.03 g/m*3 0.2 C 0 km/h
1561 23-01-2011 00:12:03 0.1 C 4 g/m*3 0.1 C 0 km/h
1562 23-01-2011 00:24:03 0.2 C 4.03 g/m*3 0.2 C 0 km/h
1563 23-01-2011 00:36:03 0.3 C 4.06 g/m*3 0.3 C 0 km/h
1564 23-01-2011 00:48:03 0.3 C 4.06 g/m*3 0.3 C 0 km/h
1565 23-01-2011 01:00:03 0.2 C 4.03 g/m*3 0.2 C 0 km/h
1566 23-01-2011 01:12:03 0.3 C 4.06 g/m*3 0.3 C 0 km/h
1567 23-01-2011 01:24:03 0.2 C 4.03 g/m*3 0.2 C 0 km/h
1568 23-01-2011 01:36:03 0.2 C 4.03 g/m*3 0.2 C 0 km/h
1569 23-01-2011 01:48:03 0.2 C 4.03 g/m*3 0.2 C 0 km/h
1570 23-01-2011 02:00:03 0.2 C 4.03 g/m*3 0.2 C 0 km/h
1571 23-01-2011 02:12:04 0.3 C 4.06 g/m*3 0.3 C 0 km/h
1572 23-01-2011 02:24:04 0.2 C 4.03 g/m*3 0.2 C 0 km/h
1573 23-01-2011 02:36:04 0.3 C 4.06 g/m*3 0.3 C 0 km/h
1574 23-01-2011 02:48:04 0.4 C 4.08 g/m*3 0.4 C 0 km/h
1575 23-01-2011 03:00:04 0.4 C 4.03 g/m*3 0.4 C 0 km/h
Sensor: Nr:Datum:Temp:Abs-Feuchte:Windchill:Wind:
Aussen-T/F 1576 23-01-2011 03:12:04 0.5 C 4.06 g/m*3 0.5 C 0 km/h
1577 23-01-2011 03:24:04 0.4 C 4.03 g/m*3 0.4 C 0 km/h
1578 23-01-2011 03:36:04 0.4 C 4.03 g/m*3 0.4 C 0 km/h
1579 23-01-2011 03:48:04 0.5 C 4.06 g/m*3 0.5 C 0 km/h
1580 23-01-2011 04:00:04 0.5 C 4.06 g/m*3 0.5 C 0 km/h
1581 23-01-2011 04:12:04 0.5 C 4.06 g/m*3 0.5 C 0 km/h
1582 23-01-2011 04:24:04 0.4 C 4.03 g/m*3 0.4 C 0 km/h
1583 23-01-2011 04:36:04 0.3 C 4.06 g/m*3 0.3 C 0 km/h
1584 23-01-2011 04:48:04 0.3 C 4.06 g/m*3 0.3 C 0 km/h
1585 23-01-2011 05:00:04 0.2 C 4.08 g/m*3 0.2 C 0 km/h
1586 23-01-2011 05:12:04 0.2 C 4.18 g/m*3 0.2 C 0 km/h
1587 23-01-2011 05:24:04 0.2 C 4.22 g/m*3 0.2 C 0 km/h
1588 23-01-2011 05:36:04 0.2 C 4.27 g/m*3 0.2 C 0 km/h
1589 23-01-2011 05:48:04 0.3 C 4.3 g/m*3 0.3 C 0 km/h
1590 23-01-2011 06:00:04 0.3 C 4.35 g/m*3 0.3 C 0 km/h
1591 23-01-2011 06:12:05 0.4 C 4.38 g/m*3 0.4 C 0 km/h
1592 23-01-2011 06:24:05 0.4 C 4.38 g/m*3 0.4 C 0 km/h
1593 23-01-2011 06:36:05 0.5 C 4.41 g/m*3 0.5 C 0 km/h
1594 23-01-2011 06:48:05 0.5 C 4.46 g/m*3 0.5 C 0 km/h
1595 23-01-2011 07:00:05 0.6 C 4.49 g/m*3 0.6 C 0 km/h
1596 23-01-2011 07:12:05 0.6 C 4.49 g/m*3 0.6 C 0 km/h
1597 23-01-2011 07:24:05 0.7 C 4.53 g/m*3 0.7 C 0 km/h
1598 23-01-2011 07:36:05 0.7 C 4.53 g/m*3 0.7 C 0 km/h
1599 23-01-2011 07:48:05 0.7 C 4.53 g/m*3 0.7 C 0 km/h
1600 23-01-2011 08:00:05 0.8 C 4.56 g/m*3 0.8 C 0 km/h
Sensor: Nr:Datum:Temp:Abs-Feuchte:Windchill:Wind:
Aussen-T/F 1601 23-01-2011 08:12:05 0.8 C 4.56 g/m*3 0.8 C 0 km/h
1602 23-01-2011 08:24:05 0.9 C 4.64 g/m*3 0.9 C 0 km/h
1603 23-01-2011 08:36:05 1.1 C 4.65 g/m*3 1.1 C 0 km/h
1604 23-01-2011 08:48:05 1.1 C 4.65 g/m*3 1.1 C 0 km/h
1605 23-01-2011 09:00:05 1.3 C 4.72 g/m*3 1.3 C 0 km/h
1606 23-01-2011 09:12:05 1.4 C 4.75 g/m*3 1.4 C 0 km/h
1607 23-01-2011 09:24:05 1.4 C 4.69 g/m*3 1.4 C 0 km/h
1608 23-01-2011 09:36:05 1.5 C 4.73 g/m*3 1.5 C 0 km/h
1609 23-01-2011 09:48:02 1.7 C 4.68 g/m*3 1.7 C 0 km/h
1610 23-01-2011 10:00:02 1.8 C 4.6 g/m*3 1.8 C 0 km/h
1611 23-01-2011 10:12:02 2 C 4.61 g/m*3 2 C 0 km/h
1612 23-01-2011 10:24:02 2 C 4.5 g/m*3 2 C 0 km/h
1613 23-01-2011 10:36:02 1.9 C 4.53 g/m*3 1.9 C 0 km/h
1614 23-01-2011 10:48:02 1.9 C 4.53 g/m*3 1.9 C 0 km/h
1615 23-01-2011 11:00:02 1.8 C 4.49 g/m*3 1.8 C 0 km/h
1616 23-01-2011 11:12:01 2 C 4.5 g/m*3 2 C 0 km/h
1617 23-01-2011 11:24:02 2 C 4.5 g/m*3 2 C 0 km/h
1618 23-01-2011 11:36:01 2.1 C 4.59 g/m*3 2.1 C 0 km/h
1619 23-01-2011 11:48:02 2.2 C 4.62 g/m*3 2.2 C 0 km/h
1620 23-01-2011 12:00:02 2.5 C 4.66 g/m*3 2.5 C 0 km/h
1621 23-01-2011 12:12:01 2.1 C 4.53 g/m*3 2.1 C 0 km/h
1622 23-01-2011 12:24:01 2 C 4.56 g/m*3 2 C 0 km/h
1623 23-01-2011 12:36:01 2.1 C 4.64 g/m*3 2.1 C 0 km/h
1624 23-01-2011 12:48:02 2.1 C 4.7 g/m*3 2.1 C 0 km/h
1625 23-01-2011 13:00:03 2.2 C 4.73 g/m*3 2.2 C 0 km/h
Sensor: Nr:Datum:Temp:Abs-Feuchte:Windchill:Wind:
Aussen-T/F 1626 23-01-2011 13:12:01 2.3 C 4.76 g/m*3 2.3 C 0 km/h
1627 23-01-2011 13:24:02 2.2 C 4.73 g/m*3 2.2 C 0 km/h
1628 23-01-2011 13:36:02 2.2 C 4.79 g/m*3 2.2 C 0 km/h
1629 23-01-2011 13:48:01 2.2 C 4.79 g/m*3 2.2 C 0 km/h
1630 23-01-2011 14:00:01 2.2 C 4.79 g/m*3 2.2 C 0 km/h
1631 23-01-2011 14:12:02 2.4 C 4.85 g/m*3 2.4 C 0 km/h
1632 23-01-2011 14:24:01 2.4 C 4.85 g/m*3 2.4 C 0 km/h
1633 23-01-2011 14:36:01 2.5 C 4.94 g/m*3 2.5 C 0 km/h
1634 23-01-2011 14:48:01 2.5 C 4.94 g/m*3 2.5 C 0 km/h
1635 23-01-2011 15:00:01 2.5 C 4.94 g/m*3 2.5 C 0 km/h
1636 23-01-2011 15:12:02 2.3 C 4.88 g/m*3 2.3 C 0 km/h
1637 23-01-2011 15:24:01 2.1 C 4.81 g/m*3 2.1 C 0 km/h
1638 23-01-2011 15:36:02 2.3 C 4.93 g/m*3 2.3 C 0 km/h
1639 23-01-2011 15:48:01 2.3 C 4.93 g/m*3 2.3 C 0 km/h
1640 23-01-2011 16:00:01 2.2 C 4.9 g/m*3 2.2 C 0 km/h
1641 23-01-2011 16:12:02 2.2 C 4.96 g/m*3 2.2 C 0 km/h
1642 23-01-2011 16:24:01 2.2 C 4.96 g/m*3 2.2 C 0 km/h
1643 23-01-2011 16:36:02 2.2 C 5.01 g/m*3 2.2 C 0 km/h
1644 23-01-2011 16:48:01 2.2 C 5.01 g/m*3 2.2 C 0 km/h
1645 23-01-2011 17:00:01 2.2 C 5.01 g/m*3 2.2 C 0 km/h
1646 23-01-2011 17:12:02 2.2 C 5.01 g/m*3 2.2 C 0 km/h
1647 23-01-2011 17:24:02 2.2 C 5.07 g/m*3 2.2 C 0 km/h
1648 23-01-2011 17:36:01 2.1 C 5.04 g/m*3 2.1 C 0 km/h
1649 23-01-2011 17:48:01 2.1 C 5.04 g/m*3 2.1 C 0 km/h
1650 23-01-2011 18:00:01 2.1 C 5.04 g/m*3 2.1 C 0 km/h
Sensor: Nr:Datum:Temp:Abs-Feuchte:Windchill:Wind:
Aussen-T/F 1651 23-01-2011 18:12:02 2.1 C 5.04 g/m*3 2.1 C 0 km/h
1652 23-01-2011 18:24:02 2.2 C 5.07 g/m*3 2.2 C 0 km/h
1653 23-01-2011 18:36:01 2.1 C 5.09 g/m*3 2.1 C 0 km/h
1654 23-01-2011 18:48:02 2.1 C 5.09 g/m*3 2.1 C 0 km/h
1655 23-01-2011 19:00:02 2.1 C 5.09 g/m*3 2.1 C 0 km/h
1656 23-01-2011 19:12:01 2.2 C 5.13 g/m*3 2.2 C 0 km/h
1657 23-01-2011 19:24:02 2.2 C 5.13 g/m*3 2.2 C 0 km/h
1658 23-01-2011 19:36:03 2.2 C 5.13 g/m*3 2.2 C 0 km/h
1659 23-01-2011 19:48:03 2.2 C 5.13 g/m*3 2.2 C 0 km/h
1660 23-01-2011 20:00:03 2.2 C 5.13 g/m*3 2.2 C 0 km/h
1661 23-01-2011 20:12:02 2.2 C 5.13 g/m*3 2.2 C 0 km/h
1662 23-01-2011 20:24:02 2.2 C 5.13 g/m*3 2.2 C 0 km/h
1663 23-01-2011 20:36:02 2.2 C 5.13 g/m*3 2.2 C 0 km/h
1664 23-01-2011 20:48:02 2.3 C 5.22 g/m*3 2.3 C 0 km/h
1665 23-01-2011 21:00:02 2.3 C 5.22 g/m*3 2.3 C 0 km/h
1666 23-01-2011 21:12:02 2.3 C 5.22 g/m*3 2.3 C 0 km/h
1667 23-01-2011 21:24:03 2.2 C 5.18 g/m*3 2.2 C 0 km/h
1668 23-01-2011 21:36:02 2.2 C 5.18 g/m*3 2.2 C 0 km/h
1669 23-01-2011 21:49:05 2.2 C 5.18 g/m*3 2.2 C 0 km/h
1670 23-01-2011 22:01:05 2.3 C 5.22 g/m*3 2.3 C 0 km/h
1671 23-01-2011 22:13:05 2.2 C 5.18 g/m*3 2.2 C 0 km/h
1672 23-01-2011 22:25:05 2.3 C 5.22 g/m*3 2.3 C 0 km/h
1673 23-01-2011 22:37:05 2.3 C 5.22 g/m*3 2.3 C 0 km/h
1674 23-01-2011 22:49:05 2.3 C 5.22 g/m*3 2.3 C 0 km/h
1675 23-01-2011 23:01:05 2.3 C 5.22 g/m*3 2.3 C 0 km/h
Sensor: Nr:Datum:Temp:Abs-Feuchte:Windchill:Wind:
Aussen-T/F 1676 23-01-2011 23:13:05 2.3 C 5.22 g/m*3 2.3 C 0 km/h
1677 23-01-2011 23:25:05 2.4 C 5.25 g/m*3 2.4 C 0 km/h
1678 23-01-2011 23:37:05 2.4 C 5.25 g/m*3 2.4 C 0 km/h
1679 23-01-2011 23:49:05 2.4 C 5.25 g/m*3 2.4 C 0 km/h

Legende:
   Min
   Max


Maximal/Minimal-Werte vom 10.01.2011 - 23.01.2011

Sensor Min Max Avg
Temp
(Aussen-T/F)
-1.1 °C
17-01-2011  08:30:02
13.4 °C
13-01-2011  14:38:01
4.75 °C
Abs-Feuchte
(Aussen-T/F)
2.6 g/m*3
21-01-2011  07:58:02
8.57 g/m*3
13-01-2011  16:50:01
5.26 g/m*3
Windchill
(Aussen-T/F)
-1.1 C
17-01-2011  08:30:02
13.4 C
13-01-2011  14:38:01
4.75 C

Die Daten stammen von einer Davis Vantage Pro 2 Wetter-Station und werden unter Linux mit der Software wview2wettercgi und aufbereitet. Alle Angaben erfolgen ohne Gewähr für ihre Vollständigkeit oder Richtigkeit.
Kontakt: Rainer Krienke krienke@uni-koblenz.de . Meine Webseiten an der Uni Koblenz oder privat.
Version: $Revision: 0.78 $